Observation data for Claude 12 Southwest on 09/12/2017      Previous  Date  Next       Current Mesonet Observations  Soil Data  Daily Summary Page  Observations in Plain Language
KCL1 120500Z 14004KT 18/11 A3015 RMK A01 T01840108  RH  061%=      5-min Rain = 0
KCL1 120501Z 13003KT 18/11 A3015 RMK A01 T01840108  RH  061%=      5-min Rain = 0
KCL1 120502Z 13003KT 18/11 A3015 RMK A01 T01830108  RH  061%=      5-min Rain = 0
KCL1 120503Z 13003KT 18/11 A3015 RMK A01 T01820108  RH  062%=      5-min Rain = 0
KCL1 120504Z 14004KT 18/11 A3015 RMK A01 T01810108  RH  062%=      5-min Rain = 0
KCL1 120505Z 14004KT 18/11 A3015 RMK A01 T01810108  RH  062%=      5-min Rain = 0
KCL1 120506Z 14004KT 18/11 A3015 RMK A01 T01810108  RH  062%=      5-min Rain = 0
KCL1 120507Z 14004KT 18/11 A3015 RMK A01 T01810108  RH  062%=      5-min Rain = 0
KCL1 120508Z 14004KT 18/11 A3015 RMK A01 T01810108  RH  062%=      5-min Rain = 0
KCL1 120509Z 14004KT 18/11 A3015 RMK A01 T01810108  RH  062%=      5-min Rain = 0
KCL1 120510Z 14003KT 18/11 A3015 RMK A01 T01810108  RH  062%=      5-min Rain = 0
KCL1 120511Z 14003KT 18/11 A3015 RMK A01 T01800108  RH  062%=      5-min Rain = 0
KCL1 120512Z 14003KT 18/11 A3015 RMK A01 T01810108  RH  063%=      5-min Rain = 0
KCL1 120513Z 15003KT 18/11 A3015 RMK A01 T01800108  RH  063%=      5-min Rain = 0
KCL1 120514Z 15004KT 18/11 A3015 RMK A01 T01800108  RH  063%=      5-min Rain = 0
KCL1 120515Z 14004KT 18/11 A3015 RMK A01 T01800108  RH  063%=      5-min Rain = 0
KCL1 120516Z 14004KT 18/11 A3015 RMK A01 T01800108  RH  063%=      5-min Rain = 0
KCL1 120517Z 14003KT 18/11 A3015 RMK A01 T01800108  RH  063%=      5-min Rain = 0
KCL1 120518Z 14003KT 18/11 A3015 RMK A01 T01800108  RH  063%=      5-min Rain = 0
KCL1 120519Z 15003KT 18/11 A3015 RMK A01 T01800108  RH  063%=      5-min Rain = 0
KCL1 120520Z 15004KT 18/11 A3015 RMK A01 T01800108  RH  063%=      5-min Rain = 0
KCL1 120521Z 15004KT 18/11 A3015 RMK A01 T01800108  RH  063%=      5-min Rain = 0
KCL1 120522Z 15004KT 18/11 A3015 RMK A01 T01800108  RH  063%=      5-min Rain = 0
KCL1 120523Z 15005KT 18/11 A3015 RMK A01 T01800108  RH  063%=      5-min Rain = 0
KCL1 120524Z 15005KT 18/11 A3015 RMK A01 T01800108  RH  063%=      5-min Rain = 0
KCL1 120525Z 15005KT 18/11 A3015 RMK A01 T01800108  RH  063%=      5-min Rain = 0
KCL1 120526Z 15005KT 18/11 A3015 RMK A01 T01800108  RH  063%=      5-min Rain = 0
KCL1 120527Z 15005KT 18/11 A3015 RMK A01 T01790108  RH  063%=      5-min Rain = 0
KCL1 120528Z 15005KT 18/11 A3015 RMK A01 T01800108  RH  063%=      5-min Rain = 0
KCL1 120529Z 15005KT 18/11 A3015 RMK A01 T01790108  RH  063%=      5-min Rain = 0
KCL1 120530Z 15006KT 18/11 A3015 RMK A01 T01790108  RH  063%=      5-min Rain = 0
KCL1 120531Z 15006KT 18/11 A3015 RMK A01 T01790108  RH  063%=      5-min Rain = 0
KCL1 120532Z 14006KT 18/11 A3015 RMK A01 T01790108  RH  063%=      5-min Rain = 0
KCL1 120533Z 15006KT 18/11 A3015 RMK A01 T01790108  RH  063%=      5-min Rain = 0
KCL1 120534Z 15006KT 18/11 A3015 RMK A01 T01780107  RH  063%=      5-min Rain = 0
KCL1 120535Z 14006KT 18/11 A3015 RMK A01 T01780107  RH  063%=      5-min Rain = 0
KCL1 120536Z 15006KT 18/11 A3015 RMK A01 T01780107  RH  063%=      5-min Rain = 0
KCL1 120537Z 15005KT 18/11 A3015 RMK A01 T01770107  RH  063%=      5-min Rain = 0
KCL1 120538Z 15005KT 18/11 A3015 RMK A01 T01770107  RH  063%=      5-min Rain = 0
KCL1 120539Z 15005KT 18/11 A3015 RMK A01 T01770107  RH  063%=      5-min Rain = 0
KCL1 120540Z 15006KT 18/11 A3015 RMK A01 T01770107  RH  063%=      5-min Rain = 0
KCL1 120541Z 16005KT 18/11 A3015 RMK A01 T01770106  RH  063%=      5-min Rain = 0
KCL1 120542Z 16005KT 18/11 A3015 RMK A01 T01780106  RH  063%=      5-min Rain = 0
KCL1 120543Z 16005KT 18/11 A3015 RMK A01 T01790107  RH  063%=      5-min Rain = 0
KCL1 120544Z 16005KT 18/11 A3015 RMK A01 T01800107  RH  062%=      5-min Rain = 0
KCL1 120545Z 16005KT 18/11 A3015 RMK A01 T01810107  RH  062%=      5-min Rain = 0
KCL1 120546Z 16005KT 18/11 A3015 RMK A01 T01820107  RH  062%=      5-min Rain = 0
KCL1 120547Z 17005KT 18/11 A3015 RMK A01 T01830107  RH  061%=      5-min Rain = 0
KCL1 120548Z 17005KT 18/11 A3015 RMK A01 T01840108  RH  061%=      5-min Rain = 0
KCL1 120549Z 17005KT 19/11 A3015 RMK A01 T01850108  RH  061%=      5-min Rain = 0
KCL1 120550Z 17005KT 19/11 A3015 RMK A01 T01860108  RH  060%=      5-min Rain = 0
KCL1 120551Z 17005KT 19/11 A3015 RMK A01 T01870108  RH  060%=      5-min Rain = 0
KCL1 120552Z 17005KT 19/11 A3015 RMK A01 T01870108  RH  060%=      5-min Rain = 0
KCL1 120553Z 17005KT 19/11 A3015 RMK A01 T01880108  RH  060%=      5-min Rain = 0
KCL1 120554Z 18005KT 19/11 A3015 RMK A01 T01890108  RH  059%=      5-min Rain = 0
KCL1 120555Z 18005KT 19/11 A3014 RMK A01 T01890109  RH  059%=      5-min Rain = 0
KCL1 120556Z 17005KT 19/11 A3014 RMK A01 T01900108  RH  059%=      5-min Rain = 0
KCL1 120557Z 17005KT 19/11 A3014 RMK A01 T01920109  RH  058%=      5-min Rain = 0
KCL1 120558Z 17004KT 19/11 A3014 RMK A01 T01940109  RH  058%=      5-min Rain = 0
KCL1 120559Z 17004KT 20/11 A3014 RMK A01 T01950109  RH  058%=      5-min Rain = 0
KCL1 120600Z 17004KT 19/11 A3014 RMK A01 T01940109  RH  058%=      5-min Rain = 0
KCL1 120601Z 17004KT 19/11 A3014 RMK A01 T01940109  RH  058%=      5-min Rain = 0
KCL1 120602Z 16004KT 19/11 A3014 RMK A01 T01940108  RH  058%=      5-min Rain = 0
KCL1 120603Z 18004KT 19/11 A3014 RMK A01 T01940109  RH  058%=      5-min Rain = 0
KCL1 120604Z 17004KT 19/11 A3014 RMK A01 T01940109  RH  058%=      5-min Rain = 0
KCL1 120605Z 18004KT 19/11 A3014 RMK A01 T01940108  RH  058%=      5-min Rain = 0
KCL1 120606Z 18004KT 19/11 A3014 RMK A01 T01940108  RH  057%=      5-min Rain = 0
KCL1 120607Z 17005KT 20/11 A3014 RMK A01 T01950109  RH  057%=      5-min Rain = 0
KCL1 120608Z 17004KT 20/11 A3014 RMK A01 T01950109  RH  057%=      5-min Rain = 0
KCL1 120609Z 18004KT 20/11 A3014 RMK A01 T01950109  RH  057%=      5-min Rain = 0
KCL1 120610Z 17005KT 20/11 A3014 RMK A01 T01950109  RH  057%=      5-min Rain = 0
KCL1 120611Z 17005KT 20/11 A3014 RMK A01 T01950109  RH  057%=      5-min Rain = 0
KCL1 120612Z 17004KT 20/11 A3014 RMK A01 T01950109  RH  057%=      5-min Rain = 0
KCL1 120613Z 17004KT 20/11 A3014 RMK A01 T01950109  RH  057%=      5-min Rain = 0
KCL1 120614Z 17004KT 20/11 A3014 RMK A01 T01950109  RH  058%=      5-min Rain = 0
KCL1 120615Z 17005KT 19/11 A3014 RMK A01 T01940109  RH  058%=      5-min Rain = 0
KCL1 120616Z 16005KT 19/11 A3014 RMK A01 T01930109  RH  058%=      5-min Rain = 0
KCL1 120617Z 16005KT 19/11 A3014 RMK A01 T01930109  RH  058%=      5-min Rain = 0
KCL1 120618Z 16005KT 19/11 A3014 RMK A01 T01920108  RH  058%=      5-min Rain = 0
KCL1 120619Z 15005KT 19/11 A3014 RMK A01 T01910108  RH  059%=      5-min Rain = 0
KCL1 120620Z 16005KT 19/11 A3014 RMK A01 T01900108  RH  059%=      5-min Rain = 0
KCL1 120621Z 16005KT 19/11 A3014 RMK A01 T01890108  RH  059%=      5-min Rain = 0
KCL1 120622Z 16005KT 19/11 A3014 RMK A01 T01890108  RH  059%=      5-min Rain = 0
KCL1 120623Z 16005KT 19/11 A3014 RMK A01 T01880108  RH  059%=      5-min Rain = 0
KCL1 120624Z 16005KT 19/11 A3014 RMK A01 T01880108  RH  059%=      5-min Rain = 0
KCL1 120625Z 16005KT 19/11 A3014 RMK A01 T01890108  RH  059%=      5-min Rain = 0
KCL1 120626Z 16005KT 19/11 A3014 RMK A01 T01890108  RH  059%=      5-min Rain = 0
KCL1 120627Z 16005KT 19/11 A3014 RMK A01 T01890108  RH  059%=      5-min Rain = 0
KCL1 120628Z 16005KT 19/11 A3014 RMK A01 T01890108  RH  059%=      5-min Rain = 0
KCL1 120629Z 16005KT 19/11 A3014 RMK A01 T01890109  RH  059%=      5-min Rain = 0
KCL1 120630Z 17005KT 19/11 A3014 RMK A01 T01890108  RH  060%=      5-min Rain = 0
KCL1 120631Z 17005KT 19/11 A3014 RMK A01 T01880109  RH  060%=      5-min Rain = 0
KCL1 120632Z 17005KT 19/11 A3014 RMK A01 T01870108  RH  060%=      5-min Rain = 0
KCL1 120633Z 17005KT 19/11 A3014 RMK A01 T01870108  RH  060%=      5-min Rain = 0
KCL1 120634Z 17005KT 19/11 A3014 RMK A01 T01870109  RH  060%=      5-min Rain = 0
KCL1 120635Z 16005KT 19/11 A3014 RMK A01 T01860108  RH  060%=      5-min Rain = 0
KCL1 120636Z 16004KT 19/11 A3013 RMK A01 T01860108  RH  061%=      5-min Rain = 0
KCL1 120637Z 16004KT 19/11 A3013 RMK A01 T01850108  RH  061%=      5-min Rain = 0
KCL1 120638Z 15004KT 19/11 A3013 RMK A01 T01850108  RH  061%=      5-min Rain = 0
KCL1 120639Z 16004KT 19/11 A3013 RMK A01 T01850108  RH  061%=      5-min Rain = 0
KCL1 120640Z 15004KT 18/11 A3013 RMK A01 T01840108  RH  061%=      5-min Rain = 0
KCL1 120641Z 15005KT 18/11 A3013 RMK A01 T01830108  RH  061%=      5-min Rain = 0
KCL1 120642Z 15005KT 18/11 A3013 RMK A01 T01830108  RH  062%=      5-min Rain = 0
KCL1 120643Z 15005KT 18/11 A3013 RMK A01 T01820108  RH  062%=      5-min Rain = 0
KCL1 120644Z 15005KT 18/11 A3013 RMK A01 T01810108  RH  062%=      5-min Rain = 0
KCL1 120645Z 15005KT 18/11 A3013 RMK A01 T01810107  RH  062%=      5-min Rain = 0
KCL1 120646Z 15006KT 18/11 A3013 RMK A01 T01800107  RH  062%=      5-min Rain = 0
KCL1 120647Z 15006KT 18/11 A3013 RMK A01 T01800107  RH  063%=      5-min Rain = 0
KCL1 120648Z 15007KT 18/11 A3013 RMK A01 T01790107  RH  063%=      5-min Rain = 0
KCL1 120649Z 15006KT 18/11 A3013 RMK A01 T01790108  RH  063%=      5-min Rain = 0
KCL1 120650Z 15007KT 18/11 A3013 RMK A01 T01780108  RH  063%=      5-min Rain = 0
KCL1 120651Z 15007KT 18/11 A3013 RMK A01 T01780108  RH  064%=      5-min Rain = 0
KCL1 120652Z 15007KT 18/11 A3013 RMK A01 T01770108  RH  064%=      5-min Rain = 0
KCL1 120653Z 14007KT 18/11 A3013 RMK A01 T01770108  RH  064%=      5-min Rain = 0
KCL1 120654Z 14006KT 18/11 A3013 RMK A01 T01770109  RH  064%=      5-min Rain = 0
KCL1 120655Z 15006KT 18/11 A3013 RMK A01 T01770108  RH  064%=      5-min Rain = 0
KCL1 120656Z 14006KT 18/11 A3013 RMK A01 T01770109  RH  064%=      5-min Rain = 0
KCL1 120657Z 14006KT 18/11 A3013 RMK A01 T01760109  RH  064%=      5-min Rain = 0
KCL1 120658Z 15006KT 18/11 A3013 RMK A01 T01760108  RH  065%=      5-min Rain = 0
KCL1 120659Z 14006KT 18/11 A3013 RMK A01 T01760108  RH  065%=      5-min Rain = 0
KCL1 120700Z 15007KT 18/11 A3013 RMK A01 T01760109  RH  065%=      5-min Rain = 0
KCL1 120701Z 15006KT 18/11 A3013 RMK A01 T01760109  RH  065%=      5-min Rain = 0
KCL1 120702Z 15006KT 18/11 A3013 RMK A01 T01770109  RH  064%=      5-min Rain = 0
KCL1 120703Z 16006KT 18/11 A3013 RMK A01 T01770109  RH  064%=      5-min Rain = 0
KCL1 120704Z 15006KT 18/11 A3013 RMK A01 T01770109  RH  064%=      5-min Rain = 0
KCL1 120705Z 15006KT 18/11 A3013 RMK A01 T01780109  RH  064%=      5-min Rain = 0
KCL1 120706Z 15005KT 18/11 A3013 RMK A01 T01780109  RH  064%=      5-min Rain = 0
KCL1 120707Z 15005KT 18/11 A3013 RMK A01 T01780109  RH  064%=      5-min Rain = 0
KCL1 120708Z 15005KT 18/11 A3013 RMK A01 T01780109  RH  064%=      5-min Rain = 0
KCL1 120709Z 15006KT 18/11 A3013 RMK A01 T01780109  RH  064%=      5-min Rain = 0
KCL1 120710Z 15006KT 18/11 A3013 RMK A01 T01770109  RH  064%=      5-min Rain = 0
KCL1 120711Z 15005KT 18/11 A3013 RMK A01 T01770109  RH  064%=      5-min Rain = 0
KCL1 120712Z 15005KT 18/11 A3013 RMK A01 T01770109  RH  064%=      5-min Rain = 0
KCL1 120713Z 15005KT 18/11 A3013 RMK A01 T01760109  RH  064%=      5-min Rain = 0
KCL1 120714Z 15005KT 18/11 A3013 RMK A01 T01760108  RH  064%=      5-min Rain = 0
KCL1 120715Z 15006KT 18/11 A3013 RMK A01 T01760109  RH  065%=      5-min Rain = 0
KCL1 120716Z 15005KT 18/11 A3013 RMK A01 T01760109  RH  065%=      5-min Rain = 0
KCL1 120717Z 15006KT 18/11 A3013 RMK A01 T01750108  RH  065%=      5-min Rain = 0
KCL1 120718Z 15006KT 18/11 A3013 RMK A01 T01750108  RH  065%=      5-min Rain = 0
KCL1 120719Z 15006KT 18/11 A3013 RMK A01 T01750109  RH  065%=      5-min Rain = 0
KCL1 120720Z 15006KT 18/11 A3013 RMK A01 T01750108  RH  065%=      5-min Rain = 0
KCL1 120721Z 15006KT 17/11 A3013 RMK A01 T01740108  RH  065%=      5-min Rain = 0
KCL1 120722Z 15005KT 17/11 A3013 RMK A01 T01740108  RH  065%=      5-min Rain = 0
KCL1 120723Z 16006KT 17/11 A3013 RMK A01 T01740108  RH  065%=      5-min Rain = 0
KCL1 120724Z 16006KT 17/11 A3013 RMK A01 T01740108  RH  065%=      5-min Rain = 0
KCL1 120725Z 16006KT 18/11 A3013 RMK A01 T01750108  RH  065%=      5-min Rain = 0
KCL1 120726Z 16005KT 18/11 A3013 RMK A01 T01750108  RH  065%=      5-min Rain = 0
KCL1 120727Z 16005KT 18/11 A3013 RMK A01 T01750108  RH  065%=      5-min Rain = 0
KCL1 120728Z 16005KT 18/11 A3013 RMK A01 T01750108  RH  065%=      5-min Rain = 0
KCL1 120729Z 16005KT 18/11 A3013 RMK A01 T01760108  RH  065%=      5-min Rain = 0
KCL1 120730Z 16006KT 18/11 A3013 RMK A01 T01760108  RH  064%=      5-min Rain = 0
KCL1 120731Z 16005KT 18/11 A3013 RMK A01 T01770108  RH  064%=      5-min Rain = 0
KCL1 120732Z 17005KT 18/11 A3013 RMK A01 T01760108  RH  064%=      5-min Rain = 0
KCL1 120733Z 17005KT 18/11 A3013 RMK A01 T01760108  RH  064%=      5-min Rain = 0
KCL1 120734Z 17004KT 18/11 A3013 RMK A01 T01770109  RH  064%=      5-min Rain = 0
KCL1 120735Z 18003KT 18/11 A3013 RMK A01 T01780109  RH  064%=      5-min Rain = 0
KCL1 120736Z 19003KT 18/11 A3013 RMK A01 T01790109  RH  063%=      5-min Rain = 0
KCL1 120737Z 20003KT 18/11 A3013 RMK A01 T01790109  RH  063%=      5-min Rain = 0
KCL1 120738Z 20003KT 18/11 A3013 RMK A01 T01800109  RH  063%=      5-min Rain = 0
KCL1 120739Z 20003KT 18/11 A3013 RMK A01 T01800109  RH  063%=      5-min Rain = 0
KCL1 120740Z 19003KT 18/11 A3013 RMK A01 T01790109  RH  063%=      5-min Rain = 0
KCL1 120741Z 19003KT 18/11 A3013 RMK A01 T01790109  RH  063%=      5-min Rain = 0
KCL1 120742Z 21003KT 18/11 A3013 RMK A01 T01800109  RH  063%=      5-min Rain = 0
KCL1 120743Z 20003KT 18/11 A3013 RMK A01 T01810109  RH  063%=      5-min Rain = 0
KCL1 120744Z 19003KT 18/11 A3013 RMK A01 T01810109  RH  063%=      5-min Rain = 0
KCL1 120745Z 20003KT 18/11 A3013 RMK A01 T01810109  RH  063%=      5-min Rain = 0
KCL1 120746Z 20003KT 18/11 A3013 RMK A01 T01810109  RH  063%=      5-min Rain = 0
KCL1 120747Z 19003KT 18/11 A3013 RMK A01 T01820109  RH  062%=      5-min Rain = 0
KCL1 120748Z 19003KT 18/11 A3012 RMK A01 T01830109  RH  062%=      5-min Rain = 0
KCL1 120749Z 19003KT 18/11 A3012 RMK A01 T01840109  RH  062%=      5-min Rain = 0
KCL1 120750Z 18003KT 18/11 A3012 RMK A01 T01840109  RH  062%=      5-min Rain = 0
KCL1 120751Z 19003KT 19/11 A3012 RMK A01 T01850109  RH  061%=      5-min Rain = 0
KCL1 120752Z 19003KT 19/11 A3012 RMK A01 T01850109  RH  061%=      5-min Rain = 0
KCL1 120753Z 19003KT 19/11 A3012 RMK A01 T01850110  RH  061%=      5-min Rain = 0
KCL1 120754Z 18003KT 18/11 A3012 RMK A01 T01840109  RH  062%=      5-min Rain = 0
KCL1 120755Z 18003KT 18/11 A3012 RMK A01 T01840109  RH  062%=      5-min Rain = 0
KCL1 120756Z 19003KT 18/11 A3012 RMK A01 T01840109  RH  062%=      5-min Rain = 0
KCL1 120757Z 19003KT 18/11 A3012 RMK A01 T01840109  RH  062%=      5-min Rain = 0
KCL1 120758Z 20003KT 18/11 A3012 RMK A01 T01840109  RH  062%=      5-min Rain = 0
KCL1 120759Z 19003KT 18/11 A3012 RMK A01 T01840110  RH  062%=      5-min Rain = 0
KCL1 120800Z 19003KT 18/11 A3012 RMK A01 T01840109  RH  062%=      5-min Rain = 0
KCL1 120801Z 19003KT 18/11 A3012 RMK A01 T01840110  RH  062%=      5-min Rain = 0
KCL1 120802Z 19003KT 18/11 A3012 RMK A01 T01840109  RH  062%=      5-min Rain = 0
KCL1 120803Z 19003KT 19/11 A3012 RMK A01 T01850110  RH  061%=      5-min Rain = 0
KCL1 120804Z 19003KT 19/11 A3012 RMK A01 T01850109  RH  061%=      5-min Rain = 0
KCL1 120805Z 19003KT 19/11 A3012 RMK A01 T01860110  RH  061%=      5-min Rain = 0
KCL1 120806Z 19003KT 19/11 A3012 RMK A01 T01860109  RH  061%=      5-min Rain = 0
KCL1 120807Z 19003KT 19/11 A3012 RMK A01 T01860109  RH  061%=      5-min Rain = 0
KCL1 120808Z 18003KT 19/11 A3012 RMK A01 T01850109  RH  061%=      5-min Rain = 0
KCL1 120809Z 18003KT 19/11 A3012 RMK A01 T01860109  RH  061%=      5-min Rain = 0
KCL1 120810Z 18003KT 19/11 A3012 RMK A01 T01850109  RH  061%=      5-min Rain = 0
KCL1 120811Z 18003KT 19/11 A3012 RMK A01 T01850110  RH  061%=      5-min Rain = 0
KCL1 120812Z 18003KT 19/11 A3012 RMK A01 T01850110  RH  061%=      5-min Rain = 0
KCL1 120813Z 18003KT 19/11 A3012 RMK A01 T01850110  RH  061%=      5-min Rain = 0
KCL1 120814Z 18003KT 19/11 A3012 RMK A01 T01850110  RH  061%=      5-min Rain = 0
KCL1 120815Z 18003KT 19/11 A3012 RMK A01 T01850109  RH  061%=      5-min Rain = 0
KCL1 120816Z 18003KT 19/11 A3012 RMK A01 T01850109  RH  061%=      5-min Rain = 0
KCL1 120817Z 19003KT 19/11 A3012 RMK A01 T01850109  RH  061%=      5-min Rain = 0
KCL1 120818Z 19003KT 19/11 A3012 RMK A01 T01860109  RH  061%=      5-min Rain = 0
KCL1 120819Z 20004KT 19/11 A3012 RMK A01 T01860109  RH  061%=      5-min Rain = 0
KCL1 120820Z 21003KT 19/11 A3012 RMK A01 T01850109  RH  061%=      5-min Rain = 0
KCL1 120821Z 22002KT 18/11 A3012 RMK A01 T01840109  RH  062%=      5-min Rain = 0
KCL1 120822Z 22002KT 18/11 A3012 RMK A01 T01830109  RH  062%=      5-min Rain = 0
KCL1 120823Z 22002KT 18/11 A3012 RMK A01 T01820109  RH  062%=      5-min Rain = 0
KCL1 120824Z 23002KT 18/11 A3012 RMK A01 T01820109  RH  062%=      5-min Rain = 0
KCL1 120825Z 24002KT 18/11 A3012 RMK A01 T01820109  RH  062%=      5-min Rain = 0
KCL1 120826Z 25002KT 18/11 A3012 RMK A01 T01810109  RH  062%=      5-min Rain = 0
KCL1 120827Z 25002KT 18/11 A3012 RMK A01 T01820109  RH  063%=      5-min Rain = 0
KCL1 120828Z 25002KT 18/11 A3012 RMK A01 T01810109  RH  063%=      5-min Rain = 0
KCL1 120829Z 25001KT 18/11 A3012 RMK A01 T01810109  RH  063%=      5-min Rain = 0
KCL1 120830Z 25002KT 18/11 A3012 RMK A01 T01810109  RH  063%=      5-min Rain = 0
KCL1 120831Z 25002KT 18/11 A3012 RMK A01 T01810109  RH  063%=      5-min Rain = 0
KCL1 120832Z 25002KT 18/11 A3012 RMK A01 T01810109  RH  063%=      5-min Rain = 0
KCL1 120833Z 25002KT 18/11 A3012 RMK A01 T01820109  RH  063%=      5-min Rain = 0
KCL1 120834Z 25002KT 18/11 A3012 RMK A01 T01820109  RH  063%=      5-min Rain = 0
KCL1 120835Z 25002KT 18/11 A3012 RMK A01 T01820109  RH  063%=      5-min Rain = 0
KCL1 120836Z 25002KT 18/11 A3012 RMK A01 T01810109  RH  063%=      5-min Rain = 0
KCL1 120837Z 25002KT 18/11 A3012 RMK A01 T01810109  RH  063%=      5-min Rain = 0
KCL1 120838Z 25001KT 18/11 A3011 RMK A01 T01820109  RH  062%=      5-min Rain = 0
KCL1 120839Z 25001KT 18/11 A3011 RMK A01 T01820109  RH  062%=      5-min Rain = 0
KCL1 120840Z 26001KT 18/11 A3011 RMK A01 T01820109  RH  062%=      5-min Rain = 0
KCL1 120841Z 26001KT 18/11 A3011 RMK A01 T01820109  RH  062%=      5-min Rain = 0
KCL1 120842Z 26001KT 18/11 A3011 RMK A01 T01820109  RH  062%=      5-min Rain = 0
KCL1 120843Z 26001KT 18/11 A3011 RMK A01 T01820109  RH  062%=      5-min Rain = 0
KCL1 120844Z 26001KT 18/11 A3011 RMK A01 T01820109  RH  062%=      5-min Rain = 0
KCL1 120845Z 26001KT 18/11 A3011 RMK A01 T01820109  RH  062%=      5-min Rain = 0
KCL1 120846Z 25001KT 18/11 A3011 RMK A01 T01820109  RH  063%=      5-min Rain = 0
KCL1 120847Z 25001KT 18/11 A3011 RMK A01 T01820109  RH  063%=      5-min Rain = 0
KCL1 120848Z 25000KT 18/11 A3011 RMK A01 T01810109  RH  063%=      5-min Rain = 0
KCL1 120849Z 17000KT 18/11 A3011 RMK A01 T01810109  RH  063%=      5-min Rain = 0
KCL1 120850Z 17001KT 18/11 A3011 RMK A01 T01810109  RH  063%=      5-min Rain = 0
KCL1 120851Z 16001KT 18/11 A3011 RMK A01 T01810109  RH  063%=      5-min Rain = 0
KCL1 120852Z 15001KT 18/11 A3011 RMK A01 T01800109  RH  063%=      5-min Rain = 0
KCL1 120853Z 14002KT 18/11 A3011 RMK A01 T01790109  RH  064%=      5-min Rain = 0
KCL1 120854Z 14002KT 18/11 A3011 RMK A01 T01780109  RH  064%=      5-min Rain = 0
KCL1 120855Z 13003KT 18/11 A3011 RMK A01 T01780109  RH  064%=      5-min Rain = 0
KCL1 120856Z 13003KT 18/11 A3011 RMK A01 T01780109  RH  064%=      5-min Rain = 0
KCL1 120857Z 13003KT 18/11 A3011 RMK A01 T01760108  RH  065%=      5-min Rain = 0
KCL1 120858Z 13003KT 17/11 A3011 RMK A01 T01720107  RH  066%=      5-min Rain = 0
KCL1 120859Z 13003KT 17/11 A3011 RMK A01 T01690107  RH  067%=      5-min Rain = 0
KCL1 120900Z 13003KT 17/11 A3011 RMK A01 T01660107  RH  068%=      5-min Rain = 0
KCL1 120901Z 13003KT 16/11 A3011 RMK A01 T01640106  RH  069%=      5-min Rain = 0
KCL1 120902Z 14003KT 16/11 A3011 RMK A01 T01630107  RH  069%=      5-min Rain = 0
KCL1 120903Z 14003KT 16/11 A3011 RMK A01 T01630107  RH  069%=      5-min Rain = 0
KCL1 120904Z 13003KT 16/11 A3011 RMK A01 T01630107  RH  070%=      5-min Rain = 0
KCL1 120905Z 13003KT 16/11 A3011 RMK A01 T01630108  RH  070%=      5-min Rain = 0
KCL1 120906Z 14003KT 16/11 A3011 RMK A01 T01620107  RH  070%=      5-min Rain = 0
KCL1 120907Z 15003KT 16/11 A3011 RMK A01 T01620108  RH  070%=      5-min Rain = 0
KCL1 120908Z 15003KT 16/11 A3011 RMK A01 T01620108  RH  070%=      5-min Rain = 0
KCL1 120909Z 16003KT 16/11 A3011 RMK A01 T01630108  RH  070%=      5-min Rain = 0
KCL1 120910Z 16003KT 17/11 A3011 RMK A01 T01650108  RH  069%=      5-min Rain = 0
KCL1 120911Z 17004KT 17/11 A3011 RMK A01 T01670108  RH  068%=      5-min Rain = 0
KCL1 120912Z 18004KT 17/11 A3011 RMK A01 T01700109  RH  067%=      5-min Rain = 0
KCL1 120913Z 18004KT 17/11 A3011 RMK A01 T01720109  RH  066%=      5-min Rain = 0
KCL1 120914Z 19004KT 17/11 A3011 RMK A01 T01740109  RH  065%=      5-min Rain = 0
KCL1 120915Z 20005KT 18/11 A3011 RMK A01 T01770109  RH  064%=      5-min Rain = 0
KCL1 120916Z 21004KT 18/11 A3011 RMK A01 T01770108  RH  064%=      5-min Rain = 0
KCL1 120917Z 22003KT 18/11 A3011 RMK A01 T01760108  RH  064%=      5-min Rain = 0
KCL1 120918Z 23003KT 18/11 A301 RMK A01 T01750107  RH  064%=      5-min Rain = 0
KCL1 120919Z 22004KT 18/11 A301 RMK A01 T01750107  RH  065%=      5-min Rain = 0
KCL1 120920Z 21004KT 18/11 A301 RMK A01 T01750108  RH  065%=      5-min Rain = 0
KCL1 120921Z 21004KT 18/11 A301 RMK A01 T01750108  RH  065%=      5-min Rain = 0
KCL1 120922Z 21004KT 18/11 A301 RMK A01 T01760107  RH  064%=      5-min Rain = 0
KCL1 120923Z 21004KT 18/11 A301 RMK A01 T01770108  RH  064%=      5-min Rain = 0
KCL1 120924Z 21003KT 18/11 A301 RMK A01 T01770108  RH  064%=      5-min Rain = 0
KCL1 120925Z 21003KT 18/11 A301 RMK A01 T01770108  RH  064%=      5-min Rain = 0
KCL1 120926Z 21003KT 18/11 A301 RMK A01 T01780108  RH  064%=      5-min Rain = 0
KCL1 120927Z 21003KT 18/11 A301 RMK A01 T01780108  RH  063%=      5-min Rain = 0
KCL1 120928Z 22003KT 18/11 A301 RMK A01 T01780107  RH  063%=      5-min Rain = 0
KCL1 120929Z 23002KT 18/11 A301 RMK A01 T01780107  RH  063%=      5-min Rain = 0
KCL1 120930Z 22003KT 18/11 A3011 RMK A01 T01780108  RH  063%=      5-min Rain = 0
KCL1 120931Z 22003KT 18/11 A3011 RMK A01 T01780108  RH  063%=      5-min Rain = 0
KCL1 120932Z 22002KT 18/11 A3011 RMK A01 T01780108  RH  063%=      5-min Rain = 0
KCL1 120933Z 22002KT 18/11 A3011 RMK A01 T01780108  RH  064%=      5-min Rain = 0
KCL1 120934Z 22002KT 18/11 A3011 RMK A01 T01780108  RH  064%=      5-min Rain = 0
KCL1 120935Z 21002KT 18/11 A3011 RMK A01 T01780109  RH  064%=      5-min Rain = 0
KCL1 120936Z 20002KT 18/11 A3011 RMK A01 T01780109  RH  064%=      5-min Rain = 0
KCL1 120937Z 19002KT 18/11 A301 RMK A01 T01790109  RH  064%=      5-min Rain = 0
KCL1 120938Z 18002KT 18/11 A301 RMK A01 T01790109  RH  064%=      5-min Rain = 0
KCL1 120939Z 17002KT 18/11 A301 RMK A01 T01790109  RH  064%=      5-min Rain = 0
KCL1 120940Z 17003KT 18/11 A301 RMK A01 T01790109  RH  064%=      5-min Rain = 0
KCL1 120941Z 17003KT 18/11 A301 RMK A01 T01790109  RH  064%=      5-min Rain = 0
KCL1 120942Z 16004KT 18/11 A301 RMK A01 T01770108  RH  064%=      5-min Rain = 0
KCL1 120943Z 16004KT 17/11 A301 RMK A01 T01720106  RH  065%=      5-min Rain = 0
KCL1 120944Z 16004KT 17/11 A301 RMK A01 T01670105  RH  067%=      5-min Rain = 0
KCL1 120945Z 16004KT 16/10 A301 RMK A01 T01620104  RH  068%=      5-min Rain = 0
KCL1 120946Z 17004KT 16/10 A301 RMK A01 T01590104  RH  070%=      5-min Rain = 0
KCL1 120947Z 17004KT 16/11 A301 RMK A01 T01580105  RH  071%=      5-min Rain = 0
KCL1 120948Z 17004KT 16/11 A301 RMK A01 T01580105  RH  071%=      5-min Rain = 0
KCL1 120949Z 17004KT 16/11 A301 RMK A01 T01580105  RH  071%=      5-min Rain = 0
KCL1 120950Z 18004KT 16/11 A301 RMK A01 T01600107  RH  071%=      5-min Rain = 0
KCL1 120951Z 18004KT 16/11 A301 RMK A01 T01630107  RH  070%=      5-min Rain = 0
KCL1 120952Z 17004KT 17/11 A301 RMK A01 T01660107  RH  068%=      5-min Rain = 0
KCL1 120953Z 17004KT 17/11 A301 RMK A01 T01690107  RH  067%=      5-min Rain = 0
KCL1 120954Z 17004KT 17/11 A301 RMK A01 T01710108  RH  066%=      5-min Rain = 0
KCL1 120955Z 18004KT 17/11 A301 RMK A01 T01720108  RH  066%=      5-min Rain = 0
KCL1 120956Z 17004KT 17/11 A301 RMK A01 T01740108  RH  065%=      5-min Rain = 0
KCL1 120957Z 17004KT 17/11 A301 RMK A01 T01740108  RH  065%=      5-min Rain = 0
KCL1 120958Z 17004KT 18/11 A301 RMK A01 T01750107  RH  065%=      5-min Rain = 0
KCL1 120959Z 17004KT 17/11 A301 RMK A01 T01740107  RH  065%=      5-min Rain = 0
KCL1 121000Z 17004KT 17/11 A301 RMK A01 T01730107  RH  065%=      5-min Rain = 0
KCL1 121001Z 17004KT 17/11 A301 RMK A01 T01720107  RH  066%=      5-min Rain = 0
KCL1 121002Z 18004KT 17/11 A301 RMK A01 T01720107  RH  066%=      5-min Rain = 0
KCL1 121003Z 18004KT 17/11 A301 RMK A01 T01720107  RH  066%=      5-min Rain = 0
KCL1 121004Z 18003KT 17/11 A301 RMK A01 T01710107  RH  066%=      5-min Rain = 0
KCL1 121005Z 18003KT 17/11 A301 RMK A01 T01700107  RH  066%=      5-min Rain = 0
KCL1 121006Z 18004KT 17/11 A301 RMK A01 T01700106  RH  066%=      5-min Rain = 0
KCL1 121007Z 18004KT 17/11 A301 RMK A01 T01710106  RH  066%=      5-min Rain = 0
KCL1 121008Z 18004KT 17/11 A301 RMK A01 T01720107  RH  065%=      5-min Rain = 0
KCL1 121009Z 19004KT 17/11 A301 RMK A01 T01720106  RH  065%=      5-min Rain = 0
KCL1 121010Z 19004KT 17/11 A301 RMK A01 T01720107  RH  065%=      5-min Rain = 0
KCL1 121011Z 19004KT 17/11 A301 RMK A01 T01720107  RH  065%=      5-min Rain = 0
KCL1 121012Z 18004KT 17/11 A301 RMK A01 T01710106  RH  066%=      5-min Rain = 0
KCL1 121013Z 18004KT 17/11 A301 RMK A01 T01690106  RH  066%=      5-min Rain = 0
KCL1 121014Z 18004KT 17/11 A301 RMK A01 T01680106  RH  067%=      5-min Rain = 0
KCL1 121015Z 18004KT 17/11 A301 RMK A01 T01670106  RH  067%=      5-min Rain = 0
KCL1 121016Z 18004KT 17/11 A301 RMK A01 T01670106  RH  067%=      5-min Rain = 0
KCL1 121017Z 19004KT 17/11 A301 RMK A01 T01690106  RH  067%=      5-min Rain = 0
KCL1 121018Z 19004KT 17/11 A301 RMK A01 T01700107  RH  066%=      5-min Rain = 0
KCL1 121019Z 19004KT 17/11 A301 RMK A01 T01720107  RH  066%=      5-min Rain = 0
KCL1 121020Z 19004KT 17/11 A301 RMK A01 T01720107  RH  066%=      5-min Rain = 0
KCL1 121021Z 19004KT 17/11 A301 RMK A01 T01730108  RH  065%=      5-min Rain = 0
KCL1 121022Z 20005KT 17/11 A301 RMK A01 T01740108  RH  065%=      5-min Rain = 0
KCL1 121023Z 20004KT 18/11 A301 RMK A01 T01750108  RH  065%=      5-min Rain = 0
KCL1 121024Z 22003KT 18/11 A301 RMK A01 T01750108  RH  065%=      5-min Rain = 0
KCL1 121025Z 22003KT 18/11 A301 RMK A01 T01750108  RH  065%=      5-min Rain = 0
KCL1 121026Z 22003KT 18/11 A301 RMK A01 T01750108  RH  065%=      5-min Rain = 0
KCL1 121027Z 22002KT 17/11 A301 RMK A01 T01740107  RH  065%=      5-min Rain = 0
KCL1 121028Z 21003KT 18/11 A301 RMK A01 T01750107  RH  064%=      5-min Rain = 0
KCL1 121029Z 21003KT 18/11 A301 RMK A01 T01760107  RH  064%=      5-min Rain = 0
KCL1 121030Z 21003KT 18/11 A301 RMK A01 T01760106  RH  064%=      5-min Rain = 0
KCL1 121031Z 20003KT 18/11 A301 RMK A01 T01760106  RH  063%=      5-min Rain = 0
KCL1 121032Z 21003KT 18/11 A301 RMK A01 T01770106  RH  063%=      5-min Rain = 0
KCL1 121033Z 21003KT 18/11 A301 RMK A01 T01780107  RH  063%=      5-min Rain = 0
KCL1 121034Z 21003KT 18/11 A301 RMK A01 T01780106  RH  063%=      5-min Rain = 0
KCL1 121035Z 21003KT 18/11 A301 RMK A01 T01780107  RH  063%=      5-min Rain = 0
KCL1 121036Z 20003KT 18/11 A301 RMK A01 T01780107  RH  063%=      5-min Rain = 0
KCL1 121037Z 20003KT 18/11 A301 RMK A01 T01780107  RH  063%=      5-min Rain = 0
KCL1 121038Z 20004KT 18/11 A301 RMK A01 T01780107  RH  063%=      5-min Rain = 0
KCL1 121039Z 21004KT 18/11 A301 RMK A01 T01780107  RH  063%=      5-min Rain = 0
KCL1 121040Z 20004KT 18/11 A301 RMK A01 T01790107  RH  063%=      5-min Rain = 0
KCL1 121041Z 20004KT 18/11 A301 RMK A01 T01790107  RH  063%=      5-min Rain = 0
KCL1 121042Z 20004KT 18/11 A301 RMK A01 T01790107  RH  063%=      5-min Rain = 0
KCL1 121043Z 20003KT 18/11 A301 RMK A01 T01780107  RH  063%=      5-min Rain = 0
KCL1 121044Z 19003KT 18/11 A301 RMK A01 T01780107  RH  063%=      5-min Rain = 0
KCL1 121045Z 18004KT 18/11 A301 RMK A01 T01780107  RH  063%=      5-min Rain = 0
KCL1 121046Z 18005KT 18/11 A301 RMK A01 T01770107  RH  063%=      5-min Rain = 0
KCL1 121047Z 18005KT 18/11 A301 RMK A01 T01760107  RH  064%=      5-min Rain = 0
KCL1 121048Z 18005KT 17/11 A301 RMK A01 T01740107  RH  065%=      5-min Rain = 0
KCL1 121049Z 17005KT 17/11 A301 RMK A01 T01730107  RH  065%=      5-min Rain = 0
KCL1 121050Z 17004KT 17/11 A301 RMK A01 T01720107  RH  065%=      5-min Rain = 0
KCL1 121051Z 17004KT 17/11 A301 RMK A01 T01710107  RH  066%=      5-min Rain = 0
KCL1 121052Z 17004KT 17/11 A301 RMK A01 T01710107  RH  066%=      5-min Rain = 0
KCL1 121053Z 17004KT 17/11 A301 RMK A01 T01710106  RH  066%=      5-min Rain = 0
KCL1 121054Z 17004KT 17/11 A301 RMK A01 T01700106  RH  066%=      5-min Rain = 0
KCL1 121055Z 17004KT 17/11 A301 RMK A01 T01700106  RH  066%=      5-min Rain = 0
KCL1 121056Z 17004KT 17/11 A301 RMK A01 T01700105  RH  065%=      5-min Rain = 0
KCL1 121057Z 17004KT 17/11 A301 RMK A01 T01700105  RH  065%=      5-min Rain = 0
KCL1 121058Z 17004KT 17/11 A301 RMK A01 T01700105  RH  065%=      5-min Rain = 0
KCL1 121059Z 17004KT 17/10 A301 RMK A01 T01690104  RH  066%=      5-min Rain = 0
KCL1 121100Z 16004KT 16/10 A301 RMK A01 T01640102  RH  067%=      5-min Rain = 0
KCL1 121101Z 17004KT 16/10 A301 RMK A01 T01600102  RH  068%=      5-min Rain = 0
KCL1 121102Z 16004KT 16/10 A301 RMK A01 T01580102  RH  069%=      5-min Rain = 0
KCL1 121103Z 16004KT 16/10 A301 RMK A01 T01580103  RH  070%=      5-min Rain = 0
KCL1 121104Z 16004KT 16/10 A301 RMK A01 T01570103  RH  070%=      5-min Rain = 0
KCL1 121105Z 16004KT 16/10 A301 RMK A01 T01560104  RH  071%=      5-min Rain = 0
KCL1 121106Z 16004KT 16/11 A301 RMK A01 T01550105  RH  072%=      5-min Rain = 0
KCL1 121107Z 17004KT 15/11 A301 RMK A01 T01540105  RH  072%=      5-min Rain = 0
KCL1 121108Z 17004KT 15/11 A301 RMK A01 T01540105  RH  073%=      5-min Rain = 0
KCL1 121109Z 17004KT 16/11 A301 RMK A01 T01550106  RH  073%=      5-min Rain = 0
KCL1 121110Z 17004KT 16/11 A301 RMK A01 T01560106  RH  072%=      5-min Rain = 0
KCL1 121111Z 18004KT 16/11 A301 RMK A01 T01560106  RH  072%=      5-min Rain = 0
KCL1 121112Z 18004KT 16/11 A301 RMK A01 T01570106  RH  072%=      5-min Rain = 0
KCL1 121113Z 18004KT 16/11 A301 RMK A01 T01580106  RH  071%=      5-min Rain = 0
KCL1 121114Z 19004KT 16/11 A301 RMK A01 T01590106  RH  070%=      5-min Rain = 0
KCL1 121115Z 19003KT 16/11 A301 RMK A01 T01620106  RH  069%=      5-min Rain = 0
KCL1 121116Z 19003KT 17/11 A301 RMK A01 T01650106  RH  068%=      5-min Rain = 0
KCL1 121117Z 19003KT 17/11 A301 RMK A01 T01670105  RH  067%=      5-min Rain = 0
KCL1 121118Z 19004KT 17/11 A301 RMK A01 T01690105  RH  066%=      5-min Rain = 0
KCL1 121119Z 19003KT 17/11 A301 RMK A01 T01700105  RH  065%=      5-min Rain = 0
KCL1 121120Z 19003KT 17/11 A301 RMK A01 T01710105  RH  065%=      5-min Rain = 0
KCL1 121121Z 19003KT 17/11 A301 RMK A01 T01720105  RH  065%=      5-min Rain = 0
KCL1 121122Z 20002KT 17/11 A301 RMK A01 T01720105  RH  065%=      5-min Rain = 0
KCL1 121123Z 20002KT 17/11 A301 RMK A01 T01710105  RH  065%=      5-min Rain = 0
KCL1 121124Z 19002KT 17/11 A301 RMK A01 T01710105  RH  065%=      5-min Rain = 0
KCL1 121125Z 18002KT 17/10 A301 RMK A01 T01710104  RH  065%=      5-min Rain = 0
KCL1 121126Z 17002KT 17/11 A301 RMK A01 T01720105  RH  064%=      5-min Rain = 0
KCL1 121127Z 17003KT 17/11 A301 RMK A01 T01720105  RH  065%=      5-min Rain = 0
KCL1 121128Z 16003KT 17/11 A301 RMK A01 T01700105  RH  065%=      5-min Rain = 0
KCL1 121129Z 15003KT 17/10 A301 RMK A01 T01680104  RH  066%=      5-min Rain = 0
KCL1 121130Z 15003KT 16/10 A301 RMK A01 T01630104  RH  068%=      5-min Rain = 0
KCL1 121131Z 14003KT 16/10 A301 RMK A01 T01570103  RH  070%=      5-min Rain = 0
KCL1 121132Z 14003KT 15/10 A301 RMK A01 T01530103  RH  072%=      5-min Rain = 0
KCL1 121133Z 14004KT 15/10 A301 RMK A01 T01510103  RH  073%=      5-min Rain = 0
KCL1 121134Z 14004KT 15/10 A301 RMK A01 T01500103  RH  074%=      5-min Rain = 0
KCL1 121135Z 14004KT 15/10 A301 RMK A01 T01500104  RH  074%=      5-min Rain = 0
KCL1 121136Z 14004KT 15/10 A301 RMK A01 T01500104  RH  074%=      5-min Rain = 0
KCL1 121137Z 15004KT 15/10 A301 RMK A01 T01500104  RH  074%=      5-min Rain = 0
KCL1 121138Z 14004KT 15/11 A301 RMK A01 T01500105  RH  074%=      5-min Rain = 0
KCL1 121139Z 14004KT 15/11 A301 RMK A01 T01510105  RH  074%=      5-min Rain = 0
KCL1 121140Z 14004KT 15/11 A301 RMK A01 T01510105  RH  074%=      5-min Rain = 0
KCL1 121141Z 13003KT 15/11 A301 RMK A01 T01520106  RH  074%=      5-min Rain = 0
KCL1 121142Z 14004KT 15/11 A301 RMK A01 T01520105  RH  074%=      5-min Rain = 0
KCL1 121143Z 14004KT 15/11 A301 RMK A01 T01520105  RH  073%=      5-min Rain = 0
KCL1 121144Z 14004KT 15/10 A301 RMK A01 T01510104  RH  074%=      5-min Rain = 0
KCL1 121145Z 14004KT 15/10 A301 RMK A01 T01500104  RH  074%=      5-min Rain = 0
KCL1 121146Z 14004KT 15/10 A301 RMK A01 T01480103  RH  074%=      5-min Rain = 0
KCL1 121147Z 14004KT 15/10 A301 RMK A01 T01480103  RH  075%=      5-min Rain = 0
KCL1 121148Z 14004KT 15/10 A301 RMK A01 T01470103  RH  075%=      5-min Rain = 0
KCL1 121149Z 15004KT 15/10 A301 RMK A01 T01470103  RH  075%=      5-min Rain = 0
KCL1 121150Z 15004KT 15/10 A301 RMK A01 T01460103  RH  075%=      5-min Rain = 0
KCL1 121151Z 15004KT 15/10 A301 RMK A01 T01460103  RH  075%=      5-min Rain = 0
KCL1 121152Z 15005KT 15/10 A301 RMK A01 T01450103  RH  076%=      5-min Rain = 0
KCL1 121153Z 16004KT 15/10 A301 RMK A01 T01450102  RH  076%=      5-min Rain = 0
KCL1 121154Z 16004KT 15/10 A301 RMK A01 T01450103  RH  076%=      5-min Rain = 0
KCL1 121155Z 16004KT 14/10 A301 RMK A01 T01440102  RH  076%=      5-min Rain = 0
KCL1 121156Z 16004KT 14/10 A301 RMK A01 T01430101  RH  076%=      5-min Rain = 0
KCL1 121157Z 17004KT 14/10 A301 RMK A01 T01410101  RH  077%=      5-min Rain = 0
KCL1 121158Z 17004KT 14/10 A301 RMK A01 T01400101  RH  077%=      5-min Rain = 0
KCL1 121159Z 17004KT 14/10 A301 RMK A01 T01400101  RH  077%=      5-min Rain = 0
KCL1 121200Z 18004KT 14/10 A301 RMK A01 T01410101  RH  077%=      5-min Rain = 0
KCL1 121201Z 18005KT 14/10 A301 RMK A01 T01410101  RH  077%=      5-min Rain = 0
KCL1 121202Z 18005KT 14/10 A301 RMK A01 T01410101  RH  077%=      5-min Rain = 0
KCL1 121203Z 19005KT 14/10 A301 RMK A01 T01420101  RH  077%=      5-min Rain = 0
KCL1 121204Z 19004KT 14/10 A301 RMK A01 T01430102  RH  076%=      5-min Rain = 0
KCL1 121205Z 19004KT 15/10 A301 RMK A01 T01460102  RH  074%=      5-min Rain = 0
KCL1 121206Z 19004KT 15/10 A301 RMK A01 T01510102  RH  073%=      5-min Rain = 0
KCL1 121207Z 19004KT 15/10 A301 RMK A01 T01540102  RH  071%=      5-min Rain = 0
KCL1 121208Z 19004KT 16/10 A301 RMK A01 T01560102  RH  070%=      5-min Rain = 0
KCL1 121209Z 19004KT 16/10 A301 RMK A01 T01590102  RH  069%=      5-min Rain = 0
KCL1 121210Z 19005KT 16/10 A301 RMK A01 T01610102  RH  068%=      5-min Rain = 0
KCL1 121211Z 20005KT 16/10 A301 RMK A01 T01620103  RH  068%=      5-min Rain = 0
KCL1 121212Z 21004KT 16/10 A301 RMK A01 T01630103  RH  067%=      5-min Rain = 0
KCL1 121213Z 21004KT 16/10 A301 RMK A01 T01640103  RH  067%=      5-min Rain = 0
KCL1 121214Z 21004KT 17/10 A301 RMK A01 T01650103  RH  067%=      5-min Rain = 0
KCL1 121215Z 20003KT 17/10 A301 RMK A01 T01650103  RH  067%=      5-min Rain = 0
KCL1 121216Z 20004KT 17/10 A301 RMK A01 T01660103  RH  067%=      5-min Rain = 0
KCL1 121217Z 20004KT 17/10 A301 RMK A01 T01660104  RH  066%=      5-min Rain = 0
KCL1 121218Z 19004KT 17/10 A301 RMK A01 T01670104  RH  066%=      5-min Rain = 0
KCL1 121219Z 19004KT 17/10 A301 RMK A01 T01670104  RH  066%=      5-min Rain = 0
KCL1 121220Z 19004KT 17/10 A301 RMK A01 T01680103  RH  066%=      5-min Rain = 0
KCL1 121221Z 19004KT 17/10 A301 RMK A01 T01680103  RH  065%=      5-min Rain = 0
KCL1 121222Z 19004KT 17/10 A3009 RMK A01 T01690103  RH  065%=      5-min Rain = 0
KCL1 121223Z 19005KT 17/10 A3009 RMK A01 T01690103  RH  065%=      5-min Rain = 0
KCL1 121224Z 19005KT 17/10 A3009 RMK A01 T01690104  RH  065%=      5-min Rain = 0
KCL1 121225Z 18005KT 17/10 A3009 RMK A01 T01680104  RH  066%=      5-min Rain = 0
KCL1 121226Z 18005KT 17/10 A3009 RMK A01 T01680104  RH  066%=      5-min Rain = 0
KCL1 121227Z 18005KT 17/10 A3009 RMK A01 T01670104  RH  066%=      5-min Rain = 0
KCL1 121228Z 17005KT 17/10 A3009 RMK A01 T01670104  RH  066%=      5-min Rain = 0
KCL1 121229Z 17005KT 17/10 A3009 RMK A01 T01660104  RH  067%=      5-min Rain = 0
KCL1 121230Z 17005KT 17/10 A3009 RMK A01 T01650104  RH  067%=      5-min Rain = 0
KCL1 121231Z 17005KT 16/10 A3009 RMK A01 T01640104  RH  068%=      5-min Rain = 0
KCL1 121232Z 17005KT 16/10 A3009 RMK A01 T01620104  RH  068%=      5-min Rain = 0
KCL1 121233Z 17005KT 16/10 A3009 RMK A01 T01620104  RH  068%=      5-min Rain = 0
KCL1 121234Z 17005KT 16/10 A3009 RMK A01 T01620104  RH  068%=      5-min Rain = 0
KCL1 121235Z 17005KT 16/10 A3009 RMK A01 T01620103  RH  068%=      5-min Rain = 0
KCL1 121236Z 17005KT 16/10 A3009 RMK A01 T01620103  RH  068%=      5-min Rain = 0
KCL1 121237Z 17005KT 16/10 A3009 RMK A01 T01620103  RH  068%=      5-min Rain = 0
KCL1 121238Z 16005KT 16/10 A3009 RMK A01 T01620103  RH  068%=      5-min Rain = 0
KCL1 121239Z 16005KT 16/10 A3009 RMK A01 T01610103  RH  069%=      5-min Rain = 0
KCL1 121240Z 16005KT 16/10 A3009 RMK A01 T01600103  RH  069%=      5-min Rain = 0
KCL1 121241Z 17005KT 16/10 A3009 RMK A01 T01600103  RH  069%=      5-min Rain = 0
KCL1 121242Z 17005KT 16/10 A3009 RMK A01 T01600103  RH  069%=      5-min Rain = 0
KCL1 121243Z 17005KT 16/10 A3009 RMK A01 T01600102  RH  068%=      5-min Rain = 0
KCL1 121244Z 16006KT 16/10 A3009 RMK A01 T01600102  RH  068%=      5-min Rain = 0
KCL1 121245Z 16005KT 16/10 A3009 RMK A01 T01600101  RH  068%=      5-min Rain = 0
KCL1 121246Z 17006KT 16/10 A3009 RMK A01 T01600101  RH  068%=      5-min Rain = 0
KCL1 121247Z 17006KT 16/10 A3009 RMK A01 T01600101  RH  068%=      5-min Rain = 0
KCL1 121248Z 16006KT 16/10 A3009 RMK A01 T01600100  RH  068%=      5-min Rain = 0
KCL1 121249Z 16006KT 16/10 A3009 RMK A01 T01600101  RH  068%=      5-min Rain = 0
KCL1 121250Z 16006KT 16/10 A3009 RMK A01 T01600101  RH  068%=      5-min Rain = 0
KCL1 121251Z 16006KT 16/10 A3009 RMK A01 T01600100  RH  068%=      5-min Rain = 0
KCL1 121252Z 17007KT 16/10 A3009 RMK A01 T01600100  RH  068%=      5-min Rain = 0
KCL1 121253Z 17007KT 16/10 A3009 RMK A01 T01600100  RH  068%=      5-min Rain = 0
KCL1 121254Z 17007KT 16/10 A3009 RMK A01 T01600100  RH  068%=      5-min Rain = 0
KCL1 121255Z 16007KT 16/10 A3009 RMK A01 T01610101  RH  067%=      5-min Rain = 0
KCL1 121256Z 16006KT 16/10 A3009 RMK A01 T01610101  RH  067%=      5-min Rain = 0
KCL1 121257Z 16006KT 16/10 A3009 RMK A01 T01620102  RH  067%=      5-min Rain = 0
KCL1 121258Z 16006KT 16/10 A3009 RMK A01 T01620102  RH  067%=      5-min Rain = 0
KCL1 121259Z 17006KT 16/10 A3009 RMK A01 T01630102  RH  067%=      5-min Rain = 0
KCL1 121300Z 17005KT 16/10 A3009 RMK A01 T01630102  RH  067%=      5-min Rain = 0
KCL1 121301Z 17005KT 16/10 A3009 RMK A01 T01640103  RH  067%=      5-min Rain = 0
KCL1 121302Z 17005KT 16/10 A3009 RMK A01 T01640103  RH  067%=      5-min Rain = 0
KCL1 121303Z 17005KT 17/10 A3009 RMK A01 T01650104  RH  067%=      5-min Rain = 0
KCL1 121304Z 18004KT 17/10 A3009 RMK A01 T01650104  RH  067%=      5-min Rain = 0
KCL1 121305Z 19004KT 17/10 A3009 RMK A01 T01660104  RH  067%=      5-min Rain = 0
KCL1 121306Z 20004KT 17/10 A3009 RMK A01 T01660104  RH  067%=      5-min Rain = 0
KCL1 121307Z 20003KT 17/10 A3009 RMK A01 T01670104  RH  066%=      5-min Rain = 0
KCL1 121308Z 21002KT 17/10 A3009 RMK A01 T01690104  RH  066%=      5-min Rain = 0
KCL1 121309Z 20002KT 17/10 A3009 RMK A01 T01700104  RH  065%=      5-min Rain = 0
KCL1 121310Z 19002KT 17/11 A3009 RMK A01 T01710105  RH  065%=      5-min Rain = 0
KCL1 121311Z 18002KT 17/11 A3009 RMK A01 T01710107  RH  066%=      5-min Rain = 0
KCL1 121312Z 17003KT 17/11 A3009 RMK A01 T01720106  RH  065%=      5-min Rain = 0
KCL1 121313Z 17002KT 17/11 A3009 RMK A01 T01730108  RH  066%=      5-min Rain = 0
KCL1 121314Z 16002KT 17/11 A3009 RMK A01 T01730109  RH  066%=      5-min Rain = 0
KCL1 121315Z 15002KT 17/11 A3009 RMK A01 T01740111  RH  066%=      5-min Rain = 0
KCL1 121316Z 14002KT 18/11 A3009 RMK A01 T01750112  RH  066%=      5-min Rain = 0
KCL1 121317Z 14002KT 18/11 A3009 RMK A01 T01760114  RH  067%=      5-min Rain = 0
KCL1 121318Z 14003KT 18/11 A3009 RMK A01 T01750114  RH  067%=      5-min Rain = 0
KCL1 121319Z 14003KT 17/11 A3009 RMK A01 T01730114  RH  068%=      5-min Rain = 0
KCL1 121320Z 14003KT 17/11 A3009 RMK A01 T01720113  RH  069%=      5-min Rain = 0
KCL1 121321Z 14004KT 17/11 A3009 RMK A01 T01710113  RH  069%=      5-min Rain = 0
KCL1 121322Z 14004KT 17/12 A3009 RMK A01 T01700115  RH  070%=      5-min Rain = 0
KCL1 121323Z 15004KT 17/12 A3009 RMK A01 T01700115  RH  070%=      5-min Rain = 0
KCL1 121324Z 15003KT 17/12 A3009 RMK A01 T01710116  RH  070%=      5-min Rain = 0
KCL1 121325Z 15003KT 17/12 A3009 RMK A01 T01720117  RH  070%=      5-min Rain = 0
KCL1 121326Z 15003KT 17/12 A3009 RMK A01 T01730117  RH  070%=      5-min Rain = 0
KCL1 121327Z 15002KT 17/12 A3009 RMK A01 T01730117  RH  069%=      5-min Rain = 0
KCL1 121328Z 15003KT 17/12 A3009 RMK A01 T01740117  RH  069%=      5-min Rain = 0
KCL1 121329Z 15003KT 18/12 A3009 RMK A01 T01750118  RH  070%=      5-min Rain = 0
KCL1 121330Z 15004KT 18/12 A3009 RMK A01 T01750116  RH  068%=      5-min Rain = 0
KCL1 121331Z 15004KT 18/12 A3009 RMK A01 T01760117  RH  068%=      5-min Rain = 0
KCL1 121332Z 15003KT 18/12 A3009 RMK A01 T01760116  RH  067%=      5-min Rain = 0
KCL1 121333Z 16003KT 18/12 A3009 RMK A01 T01770116  RH  067%=      5-min Rain = 0
KCL1 121334Z 16003KT 18/12 A3009 RMK A01 T01780115  RH  067%=      5-min Rain = 0
KCL1 121335Z 15002KT 18/12 A3009 RMK A01 T01790117  RH  067%=      5-min Rain = 0
KCL1 121336Z 16002KT 18/12 A3009 RMK A01 T01800116  RH  066%=      5-min Rain = 0
KCL1 121337Z 16003KT 18/12 A3009 RMK A01 T01810117  RH  066%=      5-min Rain = 0
KCL1 121338Z 16003KT 18/12 A3009 RMK A01 T01810117  RH  066%=      5-min Rain = 0
KCL1 121339Z 18002KT 18/12 A3009 RMK A01 T01820117  RH  065%=      5-min Rain = 0
KCL1 121340Z 18003KT 18/12 A3009 RMK A01 T01830117  RH  065%=      5-min Rain = 0
KCL1 121341Z 20002KT 18/12 A3009 RMK A01 T01840116  RH  065%=      5-min Rain = 0
KCL1 121342Z 21001KT 18/11 A3009 RMK A01 T01840114  RH  064%=      5-min Rain = 0
KCL1 121343Z 20001KT 19/11 A3009 RMK A01 T01850113  RH  063%=      5-min Rain = 0
KCL1 121344Z 18001KT 18/11 A3009 RMK A01 T01840112  RH  063%=      5-min Rain = 0
KCL1 121345Z 16001KT 18/11 A3009 RMK A01 T01840112  RH  063%=      5-min Rain = 0
KCL1 121346Z 17002KT 18/11 A3009 RMK A01 T01840113  RH  063%=      5-min Rain = 0
KCL1 121347Z 17004KT 18/11 A3009 RMK A01 T01840111  RH  062%=      5-min Rain = 0
KCL1 121348Z 18003KT 19/11 A3009 RMK A01 T01850111  RH  062%=      5-min Rain = 0
KCL1 121349Z 18002KT 19/11 A3009 RMK A01 T01870113  RH  062%=      5-min Rain = 0
KCL1 121350Z 19002KT 19/11 A3009 RMK A01 T01870114  RH  062%=      5-min Rain = 0
KCL1 121351Z 19002KT 19/11 A3009 RMK A01 T01880113  RH  062%=      5-min Rain = 0
KCL1 121352Z 19002KT 19/11 A3009 RMK A01 T01880112  RH  061%=      5-min Rain = 0
KCL1 121353Z 19002KT 19/11 A3009 RMK A01 T01880111  RH  061%=      5-min Rain = 0
KCL1 121354Z 19002KT 19/11 A3009 RMK A01 T01880113  RH  062%=      5-min Rain = 0
KCL1 121355Z 19003KT 19/11 A3009 RMK A01 T01880112  RH  061%=      5-min Rain = 0
KCL1 121356Z 18003KT 19/11 A3009 RMK A01 T01870110  RH  061%=      5-min Rain = 0
KCL1 121357Z 17003KT 19/11 A3009 RMK A01 T01870112  RH  062%=      5-min Rain = 0
KCL1 121358Z 18002KT 19/11 A3009 RMK A01 T01870113  RH  062%=      5-min Rain = 0
KCL1 121359Z 19002KT 19/11 A3009 RMK A01 T01880113  RH  062%=      5-min Rain = 0
KCL1 121400Z 18003KT 19/11 A3009 RMK A01 T01880112  RH  061%=      5-min Rain = 0
KCL1 121401Z 18003KT 19/11 A3009 RMK A01 T01880110  RH  061%=      5-min Rain = 0
KCL1 121402Z 18002KT 19/11 A3009 RMK A01 T01880111  RH  061%=      5-min Rain = 0
KCL1 121403Z 18004KT 19/11 A3009 RMK A01 T01880112  RH  061%=      5-min Rain = 0
KCL1 121404Z 17004KT 19/11 A3009 RMK A01 T01890111  RH  060%=      5-min Rain = 0
KCL1 121405Z 18003KT 19/11 A3009 RMK A01 T01900113  RH  061%=      5-min Rain = 0
KCL1 121406Z 18004KT 19/11 A3009 RMK A01 T01910111  RH  060%=      5-min Rain = 0
KCL1 121407Z 17003KT 19/11 A3009 RMK A01 T01920111  RH  059%=      5-min Rain = 0
KCL1 121408Z 17004KT 19/11 A3009 RMK A01 T01920112  RH  059%=      5-min Rain = 0
KCL1 121409Z 17003KT 19/11 A3009 RMK A01 T01930111  RH  059%=      5-min Rain = 0
KCL1 121410Z 17003KT 19/11 A3009 RMK A01 T01940112  RH  059%=      5-min Rain = 0
KCL1 121411Z 17005KT 20/11 A3009 RMK A01 T01950110  RH  058%=      5-min Rain = 0
KCL1 121412Z 16005KT 20/11 A3009 RMK A01 T01950109  RH  058%=      5-min Rain = 0
KCL1 121413Z 17004KT 20/11 A3009 RMK A01 T01950109  RH  058%=      5-min Rain = 0
KCL1 121414Z 16005KT 20/11 A3009 RMK A01 T01950110  RH  058%=      5-min Rain = 0
KCL1 121415Z 17004KT 20/11 A3009 RMK A01 T01960111  RH  058%=      5-min Rain = 0
KCL1 121416Z 16004KT 20/11 A3009 RMK A01 T01970111  RH  057%=      5-min Rain = 0
KCL1 121417Z 17005KT 20/11 A3009 RMK A01 T01980110  RH  057%=      5-min Rain = 0
KCL1 121418Z 16005KT 20/11 A3009 RMK A01 T01980110  RH  057%=      5-min Rain = 0
KCL1 121419Z 16006KT 20/11 A3009 RMK A01 T01990108  RH  056%=      5-min Rain = 0
KCL1 121420Z 17006KT 20/11 A3009 RMK A01 T01990108  RH  056%=      5-min Rain = 0
KCL1 121421Z 15005KT 20/11 A3009 RMK A01 T01990110  RH  057%=      5-min Rain = 0
KCL1 121422Z 16006KT 20/11 A3009 RMK A01 T01990111  RH  057%=      5-min Rain = 0
KCL1 121423Z 15005KT 20/11 A3009 RMK A01 T02000109  RH  056%=      5-min Rain = 0
KCL1 121424Z 16004KT 20/11 A3009 RMK A01 T02000111  RH  056%=      5-min Rain = 0
KCL1 121425Z 15004KT 20/11 A3009 RMK A01 T02010113  RH  057%=      5-min Rain = 0
KCL1 121426Z 15005KT 20/11 A3009 RMK A01 T02020109  RH  055%=      5-min Rain = 0
KCL1 121427Z 16005KT 20/11 A3009 RMK A01 T02020110  RH  055%=      5-min Rain = 0
KCL1 121428Z 15004KT 20/11 A3009 RMK A01 T02020110  RH  055%=      5-min Rain = 0
KCL1 121429Z 15004KT 20/11 A3009 RMK A01 T02030110  RH  055%=      5-min Rain = 0
KCL1 121430Z 16005KT 20/11 A3009 RMK A01 T02040110  RH  055%=      5-min Rain = 0
KCL1 121431Z 15006KT 21/11 A3009 RMK A01 T02050108  RH  054%=      5-min Rain = 0
KCL1 121432Z 15006KT 21/11 A3009 RMK A01 T02050107  RH  053%=      5-min Rain = 0
KCL1 121433Z 16006KT 21/11 A3009 RMK A01 T02050107  RH  053%=      5-min Rain = 0
KCL1 121434Z 16007KT 21/11 A3009 RMK A01 T02050107  RH  053%=      5-min Rain = 0
KCL1 121435Z 16007KT 21/11 A3009 RMK A01 T02050105  RH  053%=      5-min Rain = 0
KCL1 121436Z 16007KT 21/11 A3009 RMK A01 T02050105  RH  053%=      5-min Rain = 0
KCL1 121437Z 16005KT 20/11 A3009 RMK A01 T02040106  RH  053%=      5-min Rain = 0
KCL1 121438Z 16004KT 20/11 A3009 RMK A01 T02040110  RH  054%=      5-min Rain = 0
KCL1 121439Z 15006KT 21/11 A3009 RMK A01 T02060109  RH  054%=      5-min Rain = 0
KCL1 121440Z 16005KT 21/11 A3009 RMK A01 T02070108  RH  053%=      5-min Rain = 0
KCL1 121441Z 16006KT 21/11 A3009 RMK A01 T02080107  RH  052%=      5-min Rain = 0
KCL1 121442Z 15004KT 21/11 A3009 RMK A01 T02080107  RH  052%=      5-min Rain = 0
KCL1 121443Z 17005KT 21/11 A3009 RMK A01 T02090109  RH  053%=      5-min Rain = 0
KCL1 121444Z 17006KT 21/11 A3009 RMK A01 T02090107  RH  052%=      5-min Rain = 0
KCL1 121445Z 17006KT 21/11 A3009 RMK A01 T02090105  RH  051%=      5-min Rain = 0
KCL1 121446Z 17006KT 21/11 A3009 RMK A01 T02090107  RH  052%=      5-min Rain = 0
KCL1 121447Z 18005KT 21/11 A3009 RMK A01 T02090108  RH  052%=      5-min Rain = 0
KCL1 121448Z 18005KT 21/11 A3009 RMK A01 T02090106  RH  052%=      5-min Rain = 0
KCL1 121449Z 17004KT 21/11 A3009 RMK A01 T02090106  RH  052%=      5-min Rain = 0
KCL1 121450Z 18004KT 21/11 A3009 RMK A01 T02100107  RH  052%=      5-min Rain = 0
KCL1 121451Z 19004KT 21/11 A3009 RMK A01 T02100108  RH  052%=      5-min Rain = 0
KCL1 121452Z 19003KT 21/11 A3009 RMK A01 T02100108  RH  052%=      5-min Rain = 0
KCL1 121453Z 17006KT 21/11 A3009 RMK A01 T02100106  RH  051%=      5-min Rain = 0
KCL1 121454Z 16005KT 21/11 A3009 RMK A01 T02100107  RH  052%=      5-min Rain = 0
KCL1 121455Z 18004KT 21/11 A3009 RMK A01 T02100109  RH  052%=      5-min Rain = 0
KCL1 121456Z 17004KT 21/11 A3009 RMK A01 T02100106  RH  051%=      5-min Rain = 0
KCL1 121457Z 18004KT 21/11 A3009 RMK A01 T02110110  RH  053%=      5-min Rain = 0
KCL1 121458Z 17005KT 21/11 A3009 RMK A01 T02120108  RH  051%=      5-min Rain = 0
KCL1 121459Z 17004KT 21/11 A3009 RMK A01 T02120106  RH  051%=      5-min Rain = 0
KCL1 121500Z 17003KT 21/11 A3009 RMK A01 T02120108  RH  051%=      5-min Rain = 0
KCL1 121501Z 17005KT 21/11 A3009 RMK A01 T02130109  RH  052%=      5-min Rain = 0
KCL1 121502Z 16006KT 21/11 A3009 RMK A01 T02140110  RH  052%=      5-min Rain = 0
KCL1 121503Z 16006KT 22/11 A3009 RMK A01 T02150107  RH  050%=      5-min Rain = 0
KCL1 121504Z 17006KT 21/11 A3009 RMK A01 T02140106  RH  050%=      5-min Rain = 0
KCL1 121505Z 17006KT 21/11 A3009 RMK A01 T02140105  RH  050%=      5-min Rain = 0
KCL1 121506Z 18005KT 21/11 A3009 RMK A01 T02130108  RH  051%=      5-min Rain = 0
KCL1 121507Z 16006KT 21/11 A3009 RMK A01 T02130109  RH  051%=      5-min Rain = 0
KCL1 121508Z 16006KT 21/11 A3009 RMK A01 T02140107  RH  050%=      5-min Rain = 0
KCL1 121509Z 16006KT 22/11 A3009 RMK A01 T02150105  RH  050%=      5-min Rain = 0
KCL1 121510Z 16006KT 21/11 A3009 RMK A01 T02140107  RH  050%=      5-min Rain = 0
KCL1 121511Z 16005KT 22/11 A3009 RMK A01 T02150108  RH  051%=      5-min Rain = 0
KCL1 121512Z 16005KT 22/11 A3009 RMK A01 T02150108  RH  050%=      5-min Rain = 0
KCL1 121513Z 16003KT 22/11 A3009 RMK A01 T02150109  RH  051%=      5-min Rain = 0
KCL1 121514Z 17005KT 22/11 A3009 RMK A01 T02160110  RH  051%=      5-min Rain = 0
KCL1 121515Z 18004KT 22/11 A3009 RMK A01 T02160108  RH  050%=      5-min Rain = 0
KCL1 121516Z 16005KT 22/11 A3009 RMK A01 T02160110  RH  051%=      5-min Rain = 0
KCL1 121517Z 16006KT 22/11 A3009 RMK A01 T02170111  RH  051%=      5-min Rain = 0
KCL1 121518Z 16005KT 22/11 A3009 RMK A01 T02180110  RH  050%=      5-min Rain = 0
KCL1 121519Z 15005KT 22/11 A3009 RMK A01 T02180109  RH  050%=      5-min Rain = 0
KCL1 121520Z 15004KT 22/11 A3009 RMK A01 T02170111  RH  051%=      5-min Rain = 0
KCL1 121521Z 18004KT 22/11 A3009 RMK A01 T02180112  RH  051%=      5-min Rain = 0
KCL1 121522Z 18006KT 22/11 A3009 RMK A01 T02190110  RH  050%=      5-min Rain = 0
KCL1 121523Z 16005KT 22/11 A3009 RMK A01 T02190111  RH  050%=      5-min Rain = 0
KCL1 121524Z 16006KT 22/11 A3009 RMK A01 T02200113  RH  051%=      5-min Rain = 0
KCL1 121525Z 16005KT 22/11 A3009 RMK A01 T02210111  RH  050%=      5-min Rain = 0
KCL1 121526Z 15006KT 22/11 A3009 RMK A01 T02210112  RH  050%=      5-min Rain = 0
KCL1 121527Z 15007KT 22/11 A3009 RMK A01 T02210112  RH  050%=      5-min Rain = 0
KCL1 121528Z 16007KT 22/11 A3009 RMK A01 T02210112  RH  050%=      5-min Rain = 0
KCL1 121529Z 16006KT 22/11 A3009 RMK A01 T02210111  RH  050%=      5-min Rain = 0
KCL1 121530Z 17005KT 22/11 A3009 RMK A01 T02210114  RH  050%=      5-min Rain = 0
KCL1 121531Z 16006KT 22/12 A3009 RMK A01 T02230115  RH  050%=      5-min Rain = 0
KCL1 121532Z 16006KT 22/11 A3009 RMK A01 T02240112  RH  049%=      5-min Rain = 0
KCL1 121533Z 16007KT 22/11 A3009 RMK A01 T02240113  RH  049%=      5-min Rain = 0
KCL1 121534Z 17006KT 23/11 A3009 RMK A01 T02250113  RH  049%=      5-min Rain = 0
KCL1 121535Z 15006KT 22/11 A3009 RMK A01 T02240112  RH  049%=      5-min Rain = 0
KCL1 121536Z 16006KT 22/11 A3009 RMK A01 T02240113  RH  049%=      5-min Rain = 0
KCL1 121537Z 18004KT 22/11 A3009 RMK A01 T02240113  RH  049%=      5-min Rain = 0
KCL1 121538Z 17004KT 22/11 A3009 RMK A01 T02240114  RH  050%=      5-min Rain = 0
KCL1 121539Z 15005KT 23/11 A3009 RMK A01 T02260114  RH  049%=      5-min Rain = 0
KCL1 121540Z 15005KT 23/12 A3009 RMK A01 T02270115  RH  049%=      5-min Rain = 0
KCL1 121541Z 18004KT 23/12 A3009 RMK A01 T02280115  RH  049%=      5-min Rain = 0
KCL1 121542Z 18004KT 23/12 A3009 RMK A01 T02300116  RH  049%=      5-min Rain = 0
KCL1 121543Z 19005KT 23/12 A3009 RMK A01 T02320116  RH  048%=      5-min Rain = 0
KCL1 121544Z 17005KT 23/11 A3009 RMK A01 T02320112  RH  047%=      5-min Rain = 0
KCL1 121545Z 19004KT 23/11 A3009 RMK A01 T02300114  RH  048%=      5-min Rain = 0
KCL1 121546Z 20004KT 23/12 A3009 RMK A01 T02310115  RH  048%=      5-min Rain = 0
KCL1 121547Z 20005KT 23/11 A3009 RMK A01 T02320114  RH  047%=      5-min Rain = 0
KCL1 121548Z 19004KT 23/11 A3009 RMK A01 T02330112  RH  046%=      5-min Rain = 0
KCL1 121549Z 19002KT 23/11 A3009 RMK A01 T02320114  RH  047%=      5-min Rain = 0
KCL1 121550Z 18003KT 23/12 A3009 RMK A01 T02320115  RH  048%=      5-min Rain = 0
KCL1 121551Z 21004KT 23/12 A3009 RMK A01 T02330116  RH  048%=      5-min Rain = 0
KCL1 121552Z 20005KT 24/11 A3009 RMK A01 T02350114  RH  046%=      5-min Rain = 0
KCL1 121553Z 18004KT 24/11 A3009 RMK A01 T02360113  RH  046%=      5-min Rain = 0
KCL1 121554Z 18005KT 24/12 A3009 RMK A01 T02360115  RH  046%=      5-min Rain = 0
KCL1 121555Z 18005KT 24/11 A3009 RMK A01 T02360114  RH  046%=      5-min Rain = 0
KCL1 121556Z 20005KT 24/12 A3009 RMK A01 T02370115  RH  046%=      5-min Rain = 0
KCL1 121557Z 20005KT 24/11 A3009 RMK A01 T02360111  RH  045%=      5-min Rain = 0
KCL1 121558Z 21005KT 24/11 A3009 RMK A01 T02350113  RH  046%=      5-min Rain = 0
KCL1 121559Z 21005KT 24/11 A3009 RMK A01 T02350112  RH  046%=      5-min Rain = 0
KCL1 121600Z 22005KT 24/11 A3009 RMK A01 T02350112  RH  046%=      5-min Rain = 0
KCL1 121601Z 22004KT 24/11 A3009 RMK A01 T02360112  RH  046%=      5-min Rain = 0
KCL1 121602Z 22005KT 24/11 A3009 RMK A01 T02360112  RH  046%=      5-min Rain = 0
KCL1 121603Z 20005KT 24/11 A3009 RMK A01 T02360113  RH  046%=      5-min Rain = 0
KCL1 121604Z 19004KT 24/11 A3009 RMK A01 T02360112  RH  046%=      5-min Rain = 0
KCL1 121605Z 22005KT 24/11 A3009 RMK A01 T02370114  RH  046%=      5-min Rain = 0
KCL1 121606Z 21004KT 24/12 A3009 RMK A01 T02390115  RH  046%=      5-min Rain = 0
KCL1 121607Z 21005KT 24/12 A3009 RMK A01 T02410115  RH  045%=      5-min Rain = 0
KCL1 121608Z 21005KT 24/12 A3009 RMK A01 T02420115  RH  045%=      5-min Rain = 0
KCL1 121609Z 21004KT 24/12 A3009 RMK A01 T02420115  RH  045%=      5-min Rain = 0
KCL1 121610Z 20003KT 24/12 A3009 RMK A01 T02430116  RH  045%=      5-min Rain = 0
KCL1 121611Z 17003KT 24/12 A3009 RMK A01 T02440117  RH  045%=      5-min Rain = 0
KCL1 121612Z 16004KT 25/12 A3009 RMK A01 T02450120  RH  046%=      5-min Rain = 0
KCL1 121613Z 22005KT 25/12 A3009 RMK A01 T02480122  RH  045%=      5-min Rain = 0
KCL1 121614Z 19002KT 25/12 A3009 RMK A01 T02500119  RH  044%=      5-min Rain = 0
KCL1 121615Z 17003KT 25/12 A3009 RMK A01 T02510118  RH  044%=      5-min Rain = 0
KCL1 121616Z 24004KT 25/12 A3009 RMK A01 T02510121  RH  044%=      5-min Rain = 0
KCL1 121617Z 24003KT 25/12 A3009 RMK A01 T02520116  RH  043%=      5-min Rain = 0
KCL1 121618Z 26003KT 25/12 A3009 RMK A01 T02500117  RH  043%=      5-min Rain = 0
KCL1 121619Z 24003KT 25/12 A3009 RMK A01 T02500119  RH  044%=      5-min Rain = 0
KCL1 121620Z 22004KT 25/12 A3009 RMK A01 T02510118  RH  043%=      5-min Rain = 0
KCL1 121621Z 23004KT 25/12 A3009 RMK A01 T02510117  RH  043%=      5-min Rain = 0
KCL1 121622Z 21004KT 25/12 A3009 RMK A01 T02510116  RH  043%=      5-min Rain = 0
KCL1 121623Z 20003KT 25/12 A3009 RMK A01 T02510117  RH  043%=      5-min Rain = 0
KCL1 121624Z 22003KT 25/12 A3009 RMK A01 T02500118  RH  044%=      5-min Rain = 0
KCL1 121625Z 22001KT 25/12 A3009 RMK A01 T02510119  RH  044%=      5-min Rain = 0
KCL1 121626Z 00001KT 25/12 A3009 RMK A01 T02530121  RH  044%=      5-min Rain = 0
KCL1 121627Z 24002KT 25/12 A3009 RMK A01 T02540120  RH  043%=      5-min Rain = 0
KCL1 121628Z 21003KT 26/12 A3009 RMK A01 T02550119  RH  043%=      5-min Rain = 0
KCL1 121629Z 17003KT 26/12 A3009 RMK A01 T02550121  RH  043%=      5-min Rain = 0
KCL1 121630Z 19003KT 26/12 A3009 RMK A01 T02570118  RH  042%=      5-min Rain = 0
KCL1 121631Z 19005KT 26/12 A3009 RMK A01 T02570120  RH  042%=      5-min Rain = 0
KCL1 121632Z 18003KT 26/12 A3008 RMK A01 T02570121  RH  043%=      5-min Rain = 0
KCL1 121633Z 20004KT 26/12 A3008 RMK A01 T02570120  RH  042%=      5-min Rain = 0
KCL1 121634Z 21004KT 26/12 A3008 RMK A01 T02580120  RH  042%=      5-min Rain = 0
KCL1 121635Z 23002KT 26/12 A3008 RMK A01 T02580120  RH  042%=      5-min Rain = 0
KCL1 121636Z 21002KT 26/12 A3008 RMK A01 T02600122  RH  042%=      5-min Rain = 0
KCL1 121637Z 18003KT 26/12 A3008 RMK A01 T02610119  RH  041%=      5-min Rain = 0
KCL1 121638Z 17001KT 26/12 A3008 RMK A01 T02610123  RH  042%=      5-min Rain = 0
KCL1 121639Z 13002KT 26/13 A3008 RMK A01 T02620125  RH  042%=      5-min Rain = 0
KCL1 121640Z 12003KT 27/12 A3008 RMK A01 T02650123  RH  041%=      5-min Rain = 0
KCL1 121641Z 08001KT 27/12 A3008 RMK A01 T02650123  RH  041%=      5-min Rain = 0
KCL1 121642Z 28002KT 27/12 A3008 RMK A01 T02660124  RH  041%=      5-min Rain = 0
KCL1 121643Z 26004KT 27/12 A3008 RMK A01 T02660119  RH  040%=      5-min Rain = 0
KCL1 121644Z 25003KT 27/12 A3008 RMK A01 T02650118  RH  040%=      5-min Rain = 0
KCL1 121645Z 26002KT 26/12 A3008 RMK A01 T02630116  RH  040%=      5-min Rain = 0
KCL1 121646Z 24001KT 26/12 A3008 RMK A01 T02620118  RH  041%=      5-min Rain = 0
KCL1 121647Z 26003KT 26/12 A3008 RMK A01 T02630122  RH  041%=      5-min Rain = 0
KCL1 121648Z 25003KT 27/12 A3008 RMK A01 T02650120  RH  040%=      5-min Rain = 0
KCL1 121649Z 25002KT 27/12 A3008 RMK A01 T02650123  RH  041%=      5-min Rain = 0
KCL1 121650Z 27002KT 27/12 A3008 RMK A01 T02670122  RH  041%=      5-min Rain = 0
KCL1 121651Z 28003KT 27/12 A3008 RMK A01 T02680120  RH  040%=      5-min Rain = 0
KCL1 121652Z 28003KT 27/12 A3008 RMK A01 T02660119  RH  040%=      5-min Rain = 0
KCL1 121653Z 27003KT 27/12 A3008 RMK A01 T02650122  RH  041%=      5-min Rain = 0
KCL1 121654Z 27002KT 27/12 A3008 RMK A01 T02660119  RH  040%=      5-min Rain = 0
KCL1 121655Z 26000KT 27/12 A3008 RMK A01 T02660120  RH  040%=      5-min Rain = 0
KCL1 121656Z 16002KT 27/12 A3008 RMK A01 T02680121  RH  040%=      5-min Rain = 0
KCL1 121657Z 16002KT 27/12 A3008 RMK A01 T02690120  RH  039%=      5-min Rain = 0
KCL1 121658Z 15002KT 27/13 A3008 RMK A01 T02710125  RH  040%=      5-min Rain = 0
KCL1 121659Z 24001KT 27/12 A3008 RMK A01 T02730121  RH  039%=      5-min Rain = 0
KCL1 121700Z 25002KT 28/12 A3008 RMK A01 T02750123  RH  039%=      5-min Rain = 0
KCL1 121701Z 27002KT 28/12 A3008 RMK A01 T02750123  RH  039%=      5-min Rain = 0
KCL1 121702Z 26003KT 28/12 A3008 RMK A01 T02750122  RH  039%=      5-min Rain = 0
KCL1 121703Z 25001KT 27/12 A3008 RMK A01 T02740122  RH  039%=      5-min Rain = 0
KCL1 121704Z 17002KT 27/12 A3008 RMK A01 T02730122  RH  039%=      5-min Rain = 0
KCL1 121705Z 15002KT 27/12 A3008 RMK A01 T02740121  RH  039%=      5-min Rain = 0
KCL1 121706Z 17001KT 28/12 A3008 RMK A01 T02760123  RH  039%=      5-min Rain = 0
KCL1 121707Z 18002KT 28/12 A3008 RMK A01 T02770121  RH  038%=      5-min Rain = 0
KCL1 121708Z 18002KT 28/12 A3008 RMK A01 T02770124  RH  039%=      5-min Rain = 0
KCL1 121709Z 19001KT 28/12 A3008 RMK A01 T02780122  RH  038%=      5-min Rain = 0
KCL1 121710Z 18002KT 28/12 A3007 RMK A01 T02790120  RH  037%=      5-min Rain = 0
KCL1 121711Z 19003KT 28/12 A3007 RMK A01 T02790119  RH  037%=      5-min Rain = 0
KCL1 121712Z 18004KT 28/12 A3007 RMK A01 T02780121  RH  038%=      5-min Rain = 0
KCL1 121713Z 17002KT 28/12 A3007 RMK A01 T02780116  RH  037%=      5-min Rain = 0
KCL1 121714Z 19001KT 28/12 A3007 RMK A01 T02780115  RH  036%=      5-min Rain = 0
KCL1 121715Z 14001KT 28/12 A3007 RMK A01 T02780117  RH  037%=      5-min Rain = 0
KCL1 121716Z 15001KT 28/12 A3007 RMK A01 T02780117  RH  037%=      5-min Rain = 0
KCL1 121717Z 26003KT 28/12 A3007 RMK A01 T02790118  RH  037%=      5-min Rain = 0
KCL1 121718Z 26003KT 28/12 A3007 RMK A01 T02800119  RH  037%=      5-min Rain = 0
KCL1 121719Z 24003KT 28/12 A3007 RMK A01 T02810118  RH  036%=      5-min Rain = 0
KCL1 121720Z 25003KT 28/11 A3007 RMK A01 T02820111  RH  035%=      5-min Rain = 0
KCL1 121721Z 31001KT 28/11 A3007 RMK A01 T02790109  RH  035%=      5-min Rain = 0
KCL1 121722Z 34000KT 28/11 A3007 RMK A01 T02780109  RH  035%=      5-min Rain = 0
KCL1 121723Z 31001KT 28/11 A3007 RMK A01 T02780110  RH  035%=      5-min Rain = 0
KCL1 121724Z 28002KT 28/12 A3007 RMK A01 T02800117  RH  036%=      5-min Rain = 0
KCL1 121725Z 26002KT 28/12 A3007 RMK A01 T02810115  RH  036%=      5-min Rain = 0
KCL1 121726Z 25003KT 28/11 A3007 RMK A01 T02830111  RH  034%=      5-min Rain = 0
KCL1 121727Z 26003KT 28/11 A3007 RMK A01 T02830114  RH  035%=      5-min Rain = 0
KCL1 121728Z 27003KT 28/11 A3007 RMK A01 T02840112  RH  034%=      5-min Rain = 0
KCL1 121729Z 30002KT 28/11 A3007 RMK A01 T02840111  RH  034%=      5-min Rain = 0
KCL1 121730Z 29003KT 28/11 A3007 RMK A01 T02830111  RH  034%=      5-min Rain = 0
KCL1 121731Z 27002KT 28/11 A3007 RMK A01 T02830113  RH  035%=      5-min Rain = 0
KCL1 121732Z 29002KT 28/11 A3007 RMK A01 T02830113  RH  035%=      5-min Rain = 0
KCL1 121733Z 31002KT 28/11 A3007 RMK A01 T02830112  RH  035%=      5-min Rain = 0
KCL1 121734Z 31002KT 28/11 A3007 RMK A01 T02830112  RH  034%=      5-min Rain = 0
KCL1 121735Z 27002KT 28/11 A3006 RMK A01 T02830112  RH  034%=      5-min Rain = 0
KCL1 121736Z 25001KT 28/11 A3006 RMK A01 T02840108  RH  033%=      5-min Rain = 0
KCL1 121737Z 29002KT 28/11 A3006 RMK A01 T02840109  RH  034%=      5-min Rain = 0
KCL1 121738Z 28003KT 29/11 A3006 RMK A01 T02850111  RH  034%=      5-min Rain = 0
KCL1 121739Z 28002KT 29/11 A3006 RMK A01 T02870111  RH  034%=      5-min Rain = 0
KCL1 121740Z 27001KT 29/11 A3006 RMK A01 T02870109  RH  033%=      5-min Rain = 0
KCL1 121741Z 00000KT 29/11 A3006 RMK A01 T02860110  RH  034%=      5-min Rain = 0
KCL1 121742Z 14001KT 29/12 A3006 RMK A01 T02880118  RH  035%=      5-min Rain = 0
KCL1 121743Z 19001KT 29/12 A3006 RMK A01 T02920120  RH  034%=      5-min Rain = 0
KCL1 121744Z 15002KT 30/11 A3006 RMK A01 T02950111  RH  032%=      5-min Rain = 0
KCL1 121745Z 12002KT 30/10 A3006 RMK A01 T02950103  RH  030%=      5-min Rain = 0
KCL1 121746Z 11002KT 30/10 A3006 RMK A01 T02950102  RH  030%=      5-min Rain = 0
KCL1 121747Z 15002KT 29/10 A3006 RMK A01 T02940102  RH  030%=      5-min Rain = 0
KCL1 121748Z 11000KT 29/10 A3006 RMK A01 T02920100  RH  030%=      5-min Rain = 0
KCL1 121749Z 02000KT 29/10 A3006 RMK A01 T02900104  RH  031%=      5-min Rain = 0
KCL1 121750Z 08000KT 29/11 A3006 RMK A01 T02910109  RH  032%=      5-min Rain = 0
KCL1 121751Z 00000KT 29/11 A3006 RMK A01 T02920111  RH  033%=      5-min Rain = 0
KCL1 121752Z 36001KT 29/12 A3006 RMK A01 T02940120  RH  034%=      5-min Rain = 0
KCL1 121753Z 33002KT 30/12 A3006 RMK A01 T02960115  RH  033%=      5-min Rain = 0
KCL1 121754Z 31002KT 30/11 A3006 RMK A01 T02960112  RH  032%=      5-min Rain = 0
KCL1 121755Z 32002KT 30/11 A3006 RMK A01 T02960108  RH  031%=      5-min Rain = 0
KCL1 121756Z 35001KT 29/11 A3006 RMK A01 T02940109  RH  032%=      5-min Rain = 0
KCL1 121757Z 36001KT 29/11 A3006 RMK A01 T02930110  RH  032%=      5-min Rain = 0
KCL1 121758Z 04002KT 29/12 A3006 RMK A01 T02930118  RH  034%=      5-min Rain = 0
KCL1 121759Z 05002KT 30/12 A3005 RMK A01 T02950117  RH  033%=      5-min Rain = 0
KCL1 121800Z 00002KT 30/12 A3005 RMK A01 T02950119  RH  034%=      5-min Rain = 0
KCL1 121801Z 19001KT 30/11 A3005 RMK A01 T02960113  RH  032%=      5-min Rain = 0
KCL1 121802Z 20003KT 30/11 A3005 RMK A01 T02960112  RH  032%=      5-min Rain = 0
KCL1 121803Z 23003KT 30/12 A3005 RMK A01 T02970115  RH  032%=      5-min Rain = 0
KCL1 121804Z 21001KT 30/11 A3005 RMK A01 T02970113  RH  032%=      5-min Rain = 0
KCL1 121805Z 21001KT 30/12 A3005 RMK A01 T02980117  RH  033%=      5-min Rain = 0
KCL1 121806Z 19002KT 30/12 A3005 RMK A01 T03010118  RH  032%=      5-min Rain = 0
KCL1 121807Z 14004KT 30/11 A3005 RMK A01 T03030113  RH  031%=      5-min Rain = 0
KCL1 121808Z 15005KT 30/11 A3005 RMK A01 T03040108  RH  030%=      5-min Rain = 0
KCL1 121809Z 15005KT 30/10 A3005 RMK A01 T03020104  RH  029%=      5-min Rain = 0
KCL1 121810Z 15003KT 30/10 A3005 RMK A01 T03000104  RH  030%=      5-min Rain = 0
KCL1 121811Z 15004KT 30/10 A3005 RMK A01 T02970104  RH  030%=      5-min Rain = 0
KCL1 121812Z 16005KT 30/11 A3005 RMK A01 T02980110  RH  031%=      5-min Rain = 0
KCL1 121813Z 17005KT 30/11 A3005 RMK A01 T03000105  RH  030%=      5-min Rain = 0
KCL1 121814Z 15005KT 30/10 A3005 RMK A01 T03010100  RH  029%=      5-min Rain = 0
KCL1 121815Z 15004KT 30/10 A3005 RMK A01 T03000104  RH  030%=      5-min Rain = 0
KCL1 121816Z 16003KT 30/11 A3005 RMK A01 T03000105  RH  030%=      5-min Rain = 0
KCL1 121817Z 19003KT 30/10 A3005 RMK A01 T03000102  RH  029%=      5-min Rain = 0
KCL1 121818Z 18005KT 30/10 A3005 RMK A01 T03000101  RH  029%=      5-min Rain = 0
KCL1 121819Z 17004KT 30/10 A3005 RMK A01 T02990099  RH  029%=      5-min Rain = 0
KCL1 121820Z 19003KT 30/10 A3005 RMK A01 T02970099  RH  029%=      5-min Rain = 0
KCL1 121821Z 15004KT 30/10 A3004 RMK A01 T02970099  RH  029%=      5-min Rain = 0
KCL1 121822Z 15003KT 30/11 A3004 RMK A01 T02970108  RH  031%=      5-min Rain = 0
KCL1 121823Z 14004KT 30/10 A3004 RMK A01 T03000101  RH  029%=      5-min Rain = 0
KCL1 121824Z 13004KT 30/10 A3004 RMK A01 T03010098  RH  028%=      5-min Rain = 0
KCL1 121825Z 12003KT 30/10 A3004 RMK A01 T03020098  RH  028%=      5-min Rain = 0
KCL1 121826Z 11003KT 30/11 A3004 RMK A01 T03040105  RH  029%=      5-min Rain = 0
KCL1 121827Z 09002KT 31/10 A3004 RMK A01 T03050098  RH  028%=      5-min Rain = 0
KCL1 121828Z 08003KT 31/10 A3004 RMK A01 T03050098  RH  028%=      5-min Rain = 0
KCL1 121829Z 08002KT 30/10 A3004 RMK A01 T03020095  RH  028%=      5-min Rain = 0
KCL1 121830Z 08001KT 30/11 A3004 RMK A01 T03000105  RH  030%=      5-min Rain = 0
KCL1 121831Z 06002KT 30/10 A3004 RMK A01 T03010104  RH  029%=      5-min Rain = 0
KCL1 121832Z 07002KT 30/11 A3004 RMK A01 T03010106  RH  030%=      5-min Rain = 0
KCL1 121833Z 06003KT 30/11 A3004 RMK A01 T03010107  RH  030%=      5-min Rain = 0
KCL1 121834Z 05002KT 30/10 A3004 RMK A01 T03010102  RH  029%=      5-min Rain = 0
KCL1 121835Z 03001KT 30/10 A3004 RMK A01 T03010098  RH  028%=      5-min Rain = 0
KCL1 121836Z 04003KT 30/10 A3004 RMK A01 T03010101  RH  029%=      5-min Rain = 0
KCL1 121837Z 04002KT 30/10 A3004 RMK A01 T03010100  RH  029%=      5-min Rain = 0
KCL1 121838Z 01002KT 30/10 A3004 RMK A01 T03000099  RH  029%=      5-min Rain = 0
KCL1 121839Z 34002KT 30/10 A3004 RMK A01 T03000095  RH  028%=      5-min Rain = 0
KCL1 121840Z 02001KT 30/10 A3004 RMK A01 T03010097  RH  028%=      5-min Rain = 0
KCL1 121841Z 35001KT 30/11 A3004 RMK A01 T03030106  RH  030%=      5-min Rain = 0
KCL1 121842Z 36002KT 31/10 A3004 RMK A01 T03050104  RH  029%=      5-min Rain = 0
KCL1 121843Z 35002KT 31/10 A3004 RMK A01 T03070100  RH  028%=      5-min Rain = 0
KCL1 121844Z 31000KT 31/10 A3004 RMK A01 T03070103  RH  028%=      5-min Rain = 0
KCL1 121845Z 28000KT 31/10 A3004 RMK A01 T03080100  RH  028%=      5-min Rain = 0
KCL1 121846Z 15002KT 31/10 A3004 RMK A01 T03090103  RH  028%=      5-min Rain = 0
KCL1 121847Z 16005KT 31/11 A3004 RMK A01 T03100108  RH  029%=      5-min Rain = 0
KCL1 121848Z 17005KT 31/10 A3003 RMK A01 T03110104  RH  028%=      5-min Rain = 0
KCL1 121849Z 18006KT 31/10 A3003 RMK A01 T03100103  RH  028%=      5-min Rain = 0
KCL1 121850Z 16005KT 31/10 A3003 RMK A01 T03080098  RH  027%=      5-min Rain = 0
KCL1 121851Z 18003KT 31/10 A3003 RMK A01 T03060103  RH  028%=      5-min Rain = 0
KCL1 121852Z 18004KT 31/10 A3003 RMK A01 T03070099  RH  028%=      5-min Rain = 0
KCL1 121853Z 16001KT 31/09 A3003 RMK A01 T03070093  RH  027%=      5-min Rain = 0
KCL1 121854Z 22002KT 31/10 A3003 RMK A01 T03080095  RH  027%=      5-min Rain = 0
KCL1 121855Z 25001KT 31/10 A3003 RMK A01 T03100099  RH  027%=      5-min Rain = 0
KCL1 121856Z 22001KT 31/10 A3003 RMK A01 T03110104  RH  028%=      5-min Rain = 0
KCL1 121857Z 20002KT 31/11 A3003 RMK A01 T03140106  RH  028%=      5-min Rain = 0
KCL1 121858Z 19001KT 32/11 A3003 RMK A01 T03170107  RH  028%=      5-min Rain = 0
KCL1 121859Z 18002KT 32/10 A3003 RMK A01 T03180103  RH  027%=      5-min Rain = 0
KCL1 121900Z 19002KT 32/11 A3003 RMK A01 T03180107  RH  027%=      5-min Rain = 0
KCL1 121901Z 16001KT 32/10 A3003 RMK A01 T03160103  RH  027%=      5-min Rain = 0
KCL1 121902Z 13002KT 32/11 A3003 RMK A01 T03150107  RH  028%=      5-min Rain = 0
KCL1 121903Z 14005KT 31/11 A3003 RMK A01 T03140110  RH  028%=      5-min Rain = 0
KCL1 121904Z 18004KT 31/11 A3003 RMK A01 T03140109  RH  028%=      5-min Rain = 0
KCL1 121905Z 20003KT 31/11 A3003 RMK A01 T03140110  RH  029%=      5-min Rain = 0
KCL1 121906Z 18004KT 32/11 A3003 RMK A01 T03150110  RH  028%=      5-min Rain = 0
KCL1 121907Z 19003KT 32/11 A3003 RMK A01 T03160114  RH  029%=      5-min Rain = 0
KCL1 121908Z 17004KT 32/11 A3003 RMK A01 T03180111  RH  028%=      5-min Rain = 0
KCL1 121909Z 17004KT 32/11 A3003 RMK A01 T03180114  RH  029%=      5-min Rain = 0
KCL1 121910Z 18001KT 32/11 A3002 RMK A01 T03170109  RH  028%=      5-min Rain = 0
KCL1 121911Z 10001KT 32/11 A3002 RMK A01 T03160114  RH  029%=      5-min Rain = 0
KCL1 121912Z 06003KT 32/12 A3002 RMK A01 T03160115  RH  029%=      5-min Rain = 0
KCL1 121913Z 05003KT 32/12 A3002 RMK A01 T03160118  RH  030%=      5-min Rain = 0
KCL1 121914Z 04004KT 31/12 A3002 RMK A01 T03140122  RH  031%=      5-min Rain = 0
KCL1 121915Z 04004KT 32/12 A3002 RMK A01 T03150122  RH  031%=      5-min Rain = 0
KCL1 121916Z 04007KT 32/12 A3002 RMK A01 T03160120  RH  030%=      5-min Rain = 0
KCL1 121917Z 04004KT 31/11 A3002 RMK A01 T03130110  RH  029%=      5-min Rain = 0
KCL1 121918Z 02005KT 31/12 A3002 RMK A01 T03090118  RH  031%=      5-min Rain = 0
KCL1 121919Z 02006KT 31/12 A3002 RMK A01 T03110117  RH  031%=      5-min Rain = 0
KCL1 121920Z 03006KT 31/11 A3002 RMK A01 T03120112  RH  029%=      5-min Rain = 0
KCL1 121921Z 02006KT 31/11 A3002 RMK A01 T03110112  RH  029%=      5-min Rain = 0
KCL1 121922Z 01004KT 31/11 A3002 RMK A01 T03100112  RH  030%=      5-min Rain = 0
KCL1 121923Z 03003KT 31/11 A3002 RMK A01 T03090113  RH  030%=      5-min Rain = 0
KCL1 121924Z 11004KT 31/12 A3002 RMK A01 T03100115  RH  030%=      5-min Rain = 0
KCL1 121925Z 06004KT 31/12 A3002 RMK A01 T03110117  RH  030%=      5-min Rain = 0
KCL1 121926Z 06004KT 31/12 A3002 RMK A01 T03120117  RH  030%=      5-min Rain = 0
KCL1 121927Z 09003KT 31/12 A3002 RMK A01 T03120115  RH  030%=      5-min Rain = 0
KCL1 121928Z 11003KT 31/12 A3002 RMK A01 T03110118  RH  031%=      5-min Rain = 0
KCL1 121929Z 08004KT 31/12 A3002 RMK A01 T03130121  RH  031%=      5-min Rain = 0
KCL1 121930Z 10003KT 31/12 A3002 RMK A01 T03140118  RH  030%=      5-min Rain = 0
KCL1 121931Z 06004KT 32/12 A3001 RMK A01 T03150117  RH  030%=      5-min Rain = 0
KCL1 121932Z 06002KT 31/11 A3001 RMK A01 T03140109  RH  028%=      5-min Rain = 0
KCL1 121933Z 12003KT 31/11 A3001 RMK A01 T03110111  RH  029%=      5-min Rain = 0
KCL1 121934Z 12005KT 31/11 A3001 RMK A01 T03110113  RH  030%=      5-min Rain = 0
KCL1 121935Z 12005KT 31/11 A3001 RMK A01 T03120114  RH  030%=      5-min Rain = 0
KCL1 121936Z 10005KT 32/12 A3001 RMK A01 T03150123  RH  031%=      5-min Rain = 0
KCL1 121937Z 09007KT 32/12 A3001 RMK A01 T03170118  RH  030%=      5-min Rain = 0
KCL1 121938Z 07007KT 32/11 A3001 RMK A01 T03170113  RH  029%=      5-min Rain = 0
KCL1 121939Z 07007KT 31/11 A3001 RMK A01 T03140114  RH  029%=      5-min Rain = 0
KCL1 121940Z 08006KT 31/11 A3001 RMK A01 T03120111  RH  029%=      5-min Rain = 0
KCL1 121941Z 09005KT 31/11 A3001 RMK A01 T03110111  RH  029%=      5-min Rain = 0
KCL1 121942Z 10004KT 31/11 A3001 RMK A01 T03110111  RH  029%=      5-min Rain = 0
KCL1 121943Z 12002KT 31/11 A3001 RMK A01 T03110113  RH  030%=      5-min Rain = 0
KCL1 121944Z 07006KT 31/11 A3001 RMK A01 T03130113  RH  029%=      5-min Rain = 0
KCL1 121945Z 07006KT 31/11 A3001 RMK A01 T03140110  RH  029%=      5-min Rain = 0
KCL1 121946Z 06005KT 31/10 A3001 RMK A01 T03110104  RH  028%=      5-min Rain = 0
KCL1 121947Z 07004KT 31/10 A3001 RMK A01 T03100101  RH  028%=      5-min Rain = 0
KCL1 121948Z 06004KT 31/10 A3001 RMK A01 T03080102  RH  028%=      5-min Rain = 0
KCL1 121949Z 04003KT 31/10 A3001 RMK A01 T03080101  RH  028%=      5-min Rain = 0
KCL1 121950Z 04002KT 31/10 A3001 RMK A01 T03070100  RH  028%=      5-min Rain = 0
KCL1 121951Z 05002KT 31/11 A30 RMK A01 T03080105  RH  029%=      5-min Rain = 0
KCL1 121952Z 05004KT 31/10 A30 RMK A01 T03090103  RH  028%=      5-min Rain = 0
KCL1 121953Z 05004KT 31/10 A30 RMK A01 T03100104  RH  028%=      5-min Rain = 0
KCL1 121954Z 03002KT 31/10 A30 RMK A01 T03100100  RH  027%=      5-min Rain = 0
KCL1 121955Z 04002KT 31/11 A30 RMK A01 T03090105  RH  028%=      5-min Rain = 0
KCL1 121956Z 07006KT 31/11 A30 RMK A01 T03110110  RH  029%=      5-min Rain = 0
KCL1 121957Z 06005KT 31/11 A30 RMK A01 T03120110  RH  029%=      5-min Rain = 0
KCL1 121958Z 05002KT 31/11 A30 RMK A01 T03130105  RH  028%=      5-min Rain = 0
KCL1 121959Z 05005KT 31/11 A30 RMK A01 T03130113  RH  029%=      5-min Rain = 0
KCL1 122000Z 06007KT 31/11 A30 RMK A01 T03140113  RH  029%=      5-min Rain = 0
KCL1 122001Z 03007KT 32/12 A30 RMK A01 T03160115  RH  029%=      5-min Rain = 0
KCL1 122002Z 00007KT 32/11 A30 RMK A01 T03170106  RH  027%=      5-min Rain = 0
KCL1 122003Z 02005KT 32/11 A30 RMK A01 T03160106  RH  027%=      5-min Rain = 0
KCL1 122004Z 06006KT 32/11 A30 RMK A01 T03160108  RH  028%=      5-min Rain = 0
KCL1 122005Z 04005KT 32/11 A30 RMK A01 T03150105  RH  027%=      5-min Rain = 0
KCL1 122006Z 06007KT 31/11 A30 RMK A01 T03130106  RH  028%=      5-min Rain = 0
KCL1 122007Z 07006KT 31/11 A30 RMK A01 T03120106  RH  028%=      5-min Rain = 0
KCL1 122008Z 09004KT 31/10 A30 RMK A01 T03120104  RH  028%=      5-min Rain = 0
KCL1 122009Z 10003KT 31/10 A30 RMK A01 T03110104  RH  028%=      5-min Rain = 0
KCL1 122010Z 10002KT 31/10 A30 RMK A01 T03110103  RH  028%=      5-min Rain = 0
KCL1 122011Z 14001KT 31/10 A30 RMK A01 T03110104  RH  028%=      5-min Rain = 0
KCL1 122012Z 11001KT 31/10 A2999 RMK A01 T03110103  RH  028%=      5-min Rain = 0
KCL1 122013Z 06003KT 31/11 A2999 RMK A01 T03120106  RH  028%=      5-min Rain = 0
KCL1 122014Z 06006KT 31/12 A2999 RMK A01 T03140117  RH  030%=      5-min Rain = 0
KCL1 122015Z 07005KT 32/11 A2999 RMK A01 T03150112  RH  029%=      5-min Rain = 0
KCL1 122016Z 08006KT 31/11 A2999 RMK A01 T03140114  RH  029%=      5-min Rain = 0
KCL1 122017Z 07005KT 31/12 A2999 RMK A01 T03140115  RH  029%=      5-min Rain = 0
KCL1 122018Z 07004KT 31/12 A2999 RMK A01 T03140116  RH  030%=      5-min Rain = 0
KCL1 122019Z 10002KT 32/11 A2999 RMK A01 T03150114  RH  029%=      5-min Rain = 0
KCL1 122020Z 15002KT 32/11 A2999 RMK A01 T03150111  RH  029%=      5-min Rain = 0
KCL1 122021Z 13003KT 32/12 A2999 RMK A01 T03180119  RH  030%=      5-min Rain = 0
KCL1 122022Z 12005KT 32/12 A2999 RMK A01 T03200117  RH  029%=      5-min Rain = 0
KCL1 122023Z 12007KT 32/11 A2999 RMK A01 T03210114  RH  028%=      5-min Rain = 0
KCL1 122024Z 15006KT 32/12 A2999 RMK A01 T03210115  RH  028%=      5-min Rain = 0
KCL1 122025Z 19004KT 32/11 A2999 RMK A01 T03200113  RH  028%=      5-min Rain = 0
KCL1 122026Z 19003KT 32/11 A2999 RMK A01 T03200110  RH  027%=      5-min Rain = 0
KCL1 122027Z 24004KT 32/11 A2999 RMK A01 T03210109  RH  027%=      5-min Rain = 0
KCL1 122028Z 26004KT 32/11 A2998 RMK A01 T03210107  RH  027%=      5-min Rain = 0
KCL1 122029Z 26002KT 32/11 A2999 RMK A01 T03200108  RH  027%=      5-min Rain = 0
KCL1 122030Z 03001KT 32/12 A2999 RMK A01 T03210118  RH  029%=      5-min Rain = 0
KCL1 122031Z 08005KT 32/12 A2998 RMK A01 T03230123  RH  029%=      5-min Rain = 0
KCL1 122032Z 08007KT 32/12 A2998 RMK A01 T03240121  RH  029%=      5-min Rain = 0
KCL1 122033Z 07007KT 32/12 A2998 RMK A01 T03230120  RH  029%=      5-min Rain = 0
KCL1 122034Z 05004KT 32/12 A2998 RMK A01 T03200117  RH  029%=      5-min Rain = 0
KCL1 122035Z 11007KT 32/12 A2998 RMK A01 T03190124  RH  030%=      5-min Rain = 0
KCL1 122036Z 11008KT 32/12 A2998 RMK A01 T03220121  RH  029%=      5-min Rain = 0
KCL1 122037Z 10007KT 32/12 A2998 RMK A01 T03220116  RH  028%=      5-min Rain = 0
KCL1 122038Z 10005KT 32/12 A2998 RMK A01 T03200121  RH  030%=      5-min Rain = 0
KCL1 122039Z 09004KT 32/11 A2998 RMK A01 T03200114  RH  028%=      5-min Rain = 0
KCL1 122040Z 08010KT 32/12 A2998 RMK A01 T03190119  RH  030%=      5-min Rain = 0
KCL1 122041Z 09008KT 32/12 A2998 RMK A01 T03180120  RH  030%=      5-min Rain = 0
KCL1 122042Z 08008KT 32/12 A2998 RMK A01 T03160121  RH  030%=      5-min Rain = 0
KCL1 122043Z 07007KT 32/12 A2998 RMK A01 T03150121  RH  030%=      5-min Rain = 0
KCL1 122044Z 06006KT 32/12 A2998 RMK A01 T03150123  RH  031%=      5-min Rain = 0
KCL1 122045Z 07007KT 32/12 A2998 RMK A01 T03160124  RH  031%=      5-min Rain = 0
KCL1 122046Z 08009KT 32/13 A2998 RMK A01 T03170126  RH  031%=      5-min Rain = 0
KCL1 122047Z 06006KT 32/12 A2998 RMK A01 T03180123  RH  030%=      5-min Rain = 0
KCL1 122048Z 10009KT 32/13 A2998 RMK A01 T03180125  RH  031%=      5-min Rain = 0
KCL1 122049Z 09010KT 32/12 A2998 RMK A01 T03190120  RH  030%=      5-min Rain = 0
KCL1 122050Z 11009KT 32/12 A2998 RMK A01 T03180123  RH  030%=      5-min Rain = 0
KCL1 122051Z 11007KT 32/13 A2998 RMK A01 T03190128  RH  031%=      5-min Rain = 0
KCL1 122052Z 10009KT 32/12 A2998 RMK A01 T03210123  RH  030%=      5-min Rain = 0
KCL1 122053Z 10008KT 32/12 A2998 RMK A01 T03200118  RH  029%=      5-min Rain = 0
KCL1 122054Z 09007KT 32/12 A2998 RMK A01 T03170121  RH  030%=      5-min Rain = 0
KCL1 122055Z 12006KT 32/13 A2997 RMK A01 T03170127  RH  031%=      5-min Rain = 0
KCL1 122056Z 11005KT 32/13 A2997 RMK A01 T03190127  RH  031%=      5-min Rain = 0
KCL1 122057Z 11006KT 32/13 A2997 RMK A01 T03210126  RH  030%=      5-min Rain = 0
KCL1 122058Z 11006KT 32/12 A2997 RMK A01 T03230121  RH  029%=      5-min Rain = 0
KCL1 122059Z 11007KT 32/13 A2997 RMK A01 T03220125  RH  030%=      5-min Rain = 0
KCL1 122100Z 12009KT 32/12 A2997 RMK A01 T03230124  RH  030%=      5-min Rain = 0
KCL1 122101Z 12007KT 32/12 A2997 RMK A01 T03220121  RH  029%=      5-min Rain = 0
KCL1 122102Z 10004KT 32/13 A2997 RMK A01 T03220129  RH  031%=      5-min Rain = 0
KCL1 122103Z 10005G11KT 32/13 A2997 RMK A01 T03220133  RH  032%=      5-min Rain = 0
KCL1 122104Z 08010KT 32/13 A2997 RMK A01 T03230127  RH  030%=      5-min Rain = 0
KCL1 122105Z 08009KT 32/12 A2997 RMK A01 T03200124  RH  030%=      5-min Rain = 0
KCL1 122106Z 09007KT 32/12 A2997 RMK A01 T03180124  RH  031%=      5-min Rain = 0
KCL1 122107Z 09010KT 32/12 A2997 RMK A01 T03160123  RH  031%=      5-min Rain = 0
KCL1 122108Z 09009KT 32/12 A2997 RMK A01 T03160123  RH  031%=      5-min Rain = 0
KCL1 122109Z 08008KT 32/12 A2997 RMK A01 T03160124  RH  031%=      5-min Rain = 0
KCL1 122110Z 08009KT 32/12 A2997 RMK A01 T03170122  RH  030%=      5-min Rain = 0
KCL1 122111Z 09009KT 32/12 A2997 RMK A01 T03160124  RH  031%=      5-min Rain = 0
KCL1 122112Z 09006KT 32/12 A2997 RMK A01 T03160124  RH  031%=      5-min Rain = 0
KCL1 122113Z 09007KT 32/13 A2997 RMK A01 T03150128  RH  032%=      5-min Rain = 0
KCL1 122114Z 08009KT 32/13 A2997 RMK A01 T03170125  RH  031%=      5-min Rain = 0
KCL1 122115Z 09008KT 32/13 A2997 RMK A01 T03160128  RH  032%=      5-min Rain = 0
KCL1 122116Z 11009KT 32/13 A2997 RMK A01 T03160132  RH  033%=      5-min Rain = 0
KCL1 122117Z 10008KT 32/13 A2997 RMK A01 T03170129  RH  032%=      5-min Rain = 0
KCL1 122118Z 10009KT 32/13 A2997 RMK A01 T03170129  RH  032%=      5-min Rain = 0
KCL1 122119Z 09008KT 32/13 A2997 RMK A01 T03160130  RH  032%=      5-min Rain = 0
KCL1 122120Z 10010KT 32/13 A2997 RMK A01 T03160130  RH  032%=      5-min Rain = 0
KCL1 122121Z 10009KT 32/13 A2997 RMK A01 T03160126  RH  031%=      5-min Rain = 0
KCL1 122122Z 10006KT 32/13 A2997 RMK A01 T03160129  RH  032%=      5-min Rain = 0
KCL1 122123Z 12008KT 32/13 A2997 RMK A01 T03160128  RH  032%=      5-min Rain = 0
KCL1 122124Z 14006KT 32/12 A2997 RMK A01 T03160123  RH  031%=      5-min Rain = 0
KCL1 122125Z 11007KT 32/13 A2997 RMK A01 T03170129  RH  032%=      5-min Rain = 0
KCL1 122126Z 11009KT 32/13 A2997 RMK A01 T03180128  RH  031%=      5-min Rain = 0
KCL1 122127Z 12008KT 32/13 A2997 RMK A01 T03190127  RH  031%=      5-min Rain = 0
KCL1 122128Z 14006KT 32/13 A2997 RMK A01 T03190127  RH  031%=      5-min Rain = 0
KCL1 122129Z 12008KT 32/13 A2997 RMK A01 T03190126  RH  031%=      5-min Rain = 0
KCL1 122130Z 12007KT 32/13 A2997 RMK A01 T03190126  RH  031%=      5-min Rain = 0
KCL1 122131Z 13005KT 32/13 A2997 RMK A01 T03180126  RH  031%=      5-min Rain = 0
KCL1 122132Z 12007KT 32/13 A2997 RMK A01 T03180130  RH  032%=      5-min Rain = 0
KCL1 122133Z 13007KT 32/13 A2996 RMK A01 T03180132  RH  032%=      5-min Rain = 0
KCL1 122134Z 13008KT 32/13 A2996 RMK A01 T03190132  RH  032%=      5-min Rain = 0
KCL1 122135Z 10008KT 32/13 A2996 RMK A01 T03200132  RH  032%=      5-min Rain = 0
KCL1 122136Z 10007KT 32/13 A2996 RMK A01 T03200134  RH  032%=      5-min Rain = 0
KCL1 122137Z 10009KT 32/13 A2996 RMK A01 T03200132  RH  032%=      5-min Rain = 0
KCL1 122138Z 09009KT 32/13 A2996 RMK A01 T03180128  RH  031%=      5-min Rain = 0
KCL1 122139Z 11007KT 32/13 A2996 RMK A01 T03170128  RH  032%=      5-min Rain = 0
KCL1 122140Z 10008KT 32/13 A2996 RMK A01 T03150127  RH  032%=      5-min Rain = 0
KCL1 122141Z 09006KT 32/12 A2996 RMK A01 T03150124  RH  031%=      5-min Rain = 0
KCL1 122142Z 10007KT 31/13 A2996 RMK A01 T03130126  RH  032%=      5-min Rain = 0
KCL1 122143Z 10006KT 31/13 A2996 RMK A01 T03140126  RH  032%=      5-min Rain = 0
KCL1 122144Z 13007KT 31/13 A2996 RMK A01 T03140129  RH  032%=      5-min Rain = 0
KCL1 122145Z 12009KT 32/13 A2996 RMK A01 T03150132  RH  033%=      5-min Rain = 0
KCL1 122146Z 13007KT 32/13 A2996 RMK A01 T03170126  RH  031%=      5-min Rain = 0
KCL1 122147Z 12005KT 32/13 A2996 RMK A01 T03180125  RH  031%=      5-min Rain = 0
KCL1 122148Z 11006KT 32/12 A2996 RMK A01 T03170123  RH  031%=      5-min Rain = 0
KCL1 122149Z 12006KT 32/13 A2996 RMK A01 T03150127  RH  032%=      5-min Rain = 0
KCL1 122150Z 11010KT 32/13 A2996 RMK A01 T03150126  RH  032%=      5-min Rain = 0
KCL1 122151Z 12009KT 31/13 A2996 RMK A01 T03140126  RH  032%=      5-min Rain = 0
KCL1 122152Z 10007KT 31/13 A2996 RMK A01 T03130125  RH  032%=      5-min Rain = 0
KCL1 122153Z 11009KT 31/13 A2996 RMK A01 T03120127  RH  032%=      5-min Rain = 0
KCL1 122154Z 11009KT 31/13 A2996 RMK A01 T03130131  RH  033%=      5-min Rain = 0
KCL1 122155Z 11009KT 31/13 A2996 RMK A01 T03130130  RH  033%=      5-min Rain = 0
KCL1 122156Z 11008KT 31/13 A2996 RMK A01 T03140130  RH  033%=      5-min Rain = 0
KCL1 122157Z 11008KT 31/13 A2996 RMK A01 T03140130  RH  033%=      5-min Rain = 0
KCL1 122158Z 11009KT 31/13 A2996 RMK A01 T03130131  RH  033%=      5-min Rain = 0
KCL1 122159Z 10009KT 31/13 A2996 RMK A01 T03130133  RH  033%=      5-min Rain = 0
KCL1 122200Z 12007KT 31/14 A2996 RMK A01 T03140135  RH  034%=      5-min Rain = 0
KCL1 122201Z 11010KT 32/13 A2996 RMK A01 T03160134  RH  033%=      5-min Rain = 0
KCL1 122202Z 11010KT 32/13 A2996 RMK A01 T03160131  RH  032%=      5-min Rain = 0
KCL1 122203Z 12010KT 32/13 A2996 RMK A01 T03150130  RH  032%=      5-min Rain = 0
KCL1 122204Z 12010KT 32/13 A2996 RMK A01 T03150129  RH  032%=      5-min Rain = 0
KCL1 122205Z 11008KT 31/13 A2996 RMK A01 T03140130  RH  032%=      5-min Rain = 0
KCL1 122206Z 12006KT 31/13 A2996 RMK A01 T03140126  RH  032%=      5-min Rain = 0
KCL1 122207Z 11006KT 31/13 A2996 RMK A01 T03130129  RH  032%=      5-min Rain = 0
KCL1 122208Z 11007KT 31/13 A2996 RMK A01 T03120129  RH  033%=      5-min Rain = 0
KCL1 122209Z 09009KT 31/13 A2996 RMK A01 T03130128  RH  032%=      5-min Rain = 0
KCL1 122210Z 10010KT 31/13 A2996 RMK A01 T03120132  RH  033%=      5-min Rain = 0
KCL1 122211Z 11012KT 31/13 A2996 RMK A01 T03120129  RH  033%=      5-min Rain = 0
KCL1 122212Z 11009KT 31/13 A2996 RMK A01 T03110127  RH  032%=      5-min Rain = 0
KCL1 122213Z 10009KT 31/13 A2996 RMK A01 T03100128  RH  033%=      5-min Rain = 0
KCL1 122214Z 09009KT 31/13 A2996 RMK A01 T03100129  RH  033%=      5-min Rain = 0
KCL1 122215Z 10007KT 31/13 A2996 RMK A01 T03100127  RH  033%=      5-min Rain = 0
KCL1 122216Z 10006KT 31/13 A2996 RMK A01 T03100126  RH  032%=      5-min Rain = 0
KCL1 122217Z 10006KT 31/13 A2996 RMK A01 T03100127  RH  033%=      5-min Rain = 0
KCL1 122218Z 11007KT 31/13 A2996 RMK A01 T03100131  RH  033%=      5-min Rain = 0
KCL1 122219Z 11009KT 31/13 A2996 RMK A01 T03100129  RH  033%=      5-min Rain = 0
KCL1 122220Z 11009KT 31/13 A2996 RMK A01 T03110131  RH  033%=      5-min Rain = 0
KCL1 122221Z 11011KT 31/13 A2996 RMK A01 T03110129  RH  033%=      5-min Rain = 0
KCL1 122222Z 11010KT 31/13 A2996 RMK A01 T03110127  RH  032%=      5-min Rain = 0
KCL1 122223Z 12009KT 31/13 A2996 RMK A01 T03110129  RH  033%=      5-min Rain = 0
KCL1 122224Z 11009KT 31/13 A2996 RMK A01 T03110128  RH  033%=      5-min Rain = 0
KCL1 122225Z 12009KT 31/13 A2996 RMK A01 T03110126  RH  032%=      5-min Rain = 0
KCL1 122226Z 12007KT 31/13 A2996 RMK A01 T03100127  RH  033%=      5-min Rain = 0
KCL1 122227Z 12006KT 31/13 A2996 RMK A01 T03110127  RH  032%=      5-min Rain = 0
KCL1 122228Z 12008KT 31/13 A2996 RMK A01 T03110128  RH  033%=      5-min Rain = 0
KCL1 122229Z 11007KT 31/13 A2996 RMK A01 T03110128  RH  033%=      5-min Rain = 0
KCL1 122230Z 11008KT 31/13 A2996 RMK A01 T03110127  RH  033%=      5-min Rain = 0
KCL1 122231Z 13006KT 31/13 A2996 RMK A01 T03110126  RH  032%=      5-min Rain = 0
KCL1 122232Z 10005KT 31/13 A2996 RMK A01 T03110128  RH  033%=      5-min Rain = 0
KCL1 122233Z 10007KT 31/13 A2996 RMK A01 T03110127  RH  032%=      5-min Rain = 0
KCL1 122234Z 12006KT 31/13 A2996 RMK A01 T03100126  RH  033%=      5-min Rain = 0
KCL1 122235Z 09006KT 31/13 A2996 RMK A01 T03090125  RH  032%=      5-min Rain = 0
KCL1 122236Z 11005KT 31/13 A2996 RMK A01 T03080128  RH  033%=      5-min Rain = 0
KCL1 122237Z 11007G12KT 31/13 A2996 RMK A01 T03090133  RH  034%=      5-min Rain = 0
KCL1 122238Z 11011KT 31/13 A2996 RMK A01 T03100128  RH  033%=      5-min Rain = 0
KCL1 122239Z 12008KT 31/13 A2996 RMK A01 T03100128  RH  033%=      5-min Rain = 0
KCL1 122240Z 12009KT 31/13 A2996 RMK A01 T03100129  RH  033%=      5-min Rain = 0
KCL1 122241Z 12008KT 31/13 A2996 RMK A01 T03100127  RH  033%=      5-min Rain = 0
KCL1 122242Z 11008KT 31/13 A2996 RMK A01 T03100128  RH  033%=      5-min Rain = 0
KCL1 122243Z 11007KT 31/13 A2996 RMK A01 T03090128  RH  033%=      5-min Rain = 0
KCL1 122244Z 12008KT 31/13 A2996 RMK A01 T03080128  RH  033%=      5-min Rain = 0
KCL1 122245Z 11009KT 31/13 A2996 RMK A01 T03080127  RH  033%=      5-min Rain = 0
KCL1 122246Z 12010KT 31/13 A2996 RMK A01 T03080127  RH  033%=      5-min Rain = 0
KCL1 122247Z 12008KT 31/13 A2996 RMK A01 T03080129  RH  033%=      5-min Rain = 0
KCL1 122248Z 12008KT 31/13 A2996 RMK A01 T03070129  RH  034%=      5-min Rain = 0
KCL1 122249Z 12009KT 31/13 A2996 RMK A01 T03080129  RH  033%=      5-min Rain = 0
KCL1 122250Z 10009KT 31/13 A2996 RMK A01 T03080129  RH  033%=      5-min Rain = 0
KCL1 122251Z 10009KT 31/13 A2996 RMK A01 T03080127  RH  033%=      5-min Rain = 0
KCL1 122252Z 10007KT 31/13 A2996 RMK A01 T03070127  RH  033%=      5-min Rain = 0
KCL1 122253Z 11007KT 31/13 A2996 RMK A01 T03070129  RH  034%=      5-min Rain = 0
KCL1 122254Z 10009KT 31/13 A2996 RMK A01 T03060128  RH  034%=      5-min Rain = 0
KCL1 122255Z 10008KT 31/13 A2995 RMK A01 T03070129  RH  034%=      5-min Rain = 0
KCL1 122256Z 10010KT 31/13 A2995 RMK A01 T03060130  RH  034%=      5-min Rain = 0
KCL1 122257Z 10010KT 31/13 A2995 RMK A01 T03050127  RH  033%=      5-min Rain = 0
KCL1 122258Z 10010KT 30/13 A2995 RMK A01 T03040128  RH  034%=      5-min Rain = 0
KCL1 122259Z 11008KT 30/13 A2995 RMK A01 T03040129  RH  034%=      5-min Rain = 0
KCL1 122300Z 10010KT 30/13 A2995 RMK A01 T03040130  RH  034%=      5-min Rain = 0
KCL1 122301Z 12009KT 30/13 A2995 RMK A01 T03040128  RH  034%=      5-min Rain = 0
KCL1 122302Z 11008KT 30/13 A2995 RMK A01 T03040130  RH  035%=      5-min Rain = 0
KCL1 122303Z 11008KT 30/13 A2995 RMK A01 T03040129  RH  034%=      5-min Rain = 0
KCL1 122304Z 12008KT 30/13 A2995 RMK A01 T03040131  RH  035%=      5-min Rain = 0
KCL1 122305Z 12010KT 30/13 A2995 RMK A01 T03040129  RH  034%=      5-min Rain = 0
KCL1 122306Z 11009KT 30/13 A2995 RMK A01 T03040128  RH  034%=      5-min Rain = 0
KCL1 122307Z 11010KT 30/13 A2996 RMK A01 T03040129  RH  034%=      5-min Rain = 0
KCL1 122308Z 10010KT 30/13 A2995 RMK A01 T03030126  RH  034%=      5-min Rain = 0
KCL1 122309Z 11011KT 30/13 A2996 RMK A01 T03020126  RH  034%=      5-min Rain = 0
KCL1 122310Z 11011KT 30/13 A2995 RMK A01 T03010126  RH  034%=      5-min Rain = 0
KCL1 122311Z 11008KT 30/13 A2996 RMK A01 T03000128  RH  035%=      5-min Rain = 0
KCL1 122312Z 11011KT 30/13 A2995 RMK A01 T03000129  RH  035%=      5-min Rain = 0
KCL1 122313Z 11011KT 30/13 A2995 RMK A01 T03000129  RH  035%=      5-min Rain = 0
KCL1 122314Z 11012KT 30/13 A2995 RMK A01 T02990129  RH  035%=      5-min Rain = 0
KCL1 122315Z 11010KT 30/13 A2995 RMK A01 T02990129  RH  035%=      5-min Rain = 0
KCL1 122316Z 10012KT 30/13 A2995 RMK A01 T02980129  RH  035%=      5-min Rain = 0
KCL1 122317Z 11011KT 30/13 A2996 RMK A01 T02970128  RH  035%=      5-min Rain = 0
KCL1 122318Z 11011KT 30/13 A2995 RMK A01 T02970128  RH  035%=      5-min Rain = 0
KCL1 122319Z 10012KT 30/13 A2995 RMK A01 T02970128  RH  035%=      5-min Rain = 0
KCL1 122320Z 11010KT 30/13 A2995 RMK A01 T02960126  RH  035%=      5-min Rain = 0
KCL1 122321Z 11009KT 30/13 A2995 RMK A01 T02950128  RH  036%=      5-min Rain = 0
KCL1 122322Z 10011KT 30/13 A2995 RMK A01 T02950129  RH  036%=      5-min Rain = 0
KCL1 122323Z 10009KT 30/13 A2995 RMK A01 T02950128  RH  036%=      5-min Rain = 0
KCL1 122324Z 10011KT 30/13 A2995 RMK A01 T02950127  RH  036%=      5-min Rain = 0
KCL1 122325Z 10010KT 29/13 A2995 RMK A01 T02940126  RH  035%=      5-min Rain = 0
KCL1 122326Z 10007KT 29/13 A2995 RMK A01 T02940127  RH  036%=      5-min Rain = 0
KCL1 122327Z 10007KT 29/13 A2995 RMK A01 T02940128  RH  036%=      5-min Rain = 0
KCL1 122328Z 10006KT 29/13 A2995 RMK A01 T02940131  RH  037%=      5-min Rain = 0
KCL1 122329Z 11008KT 30/13 A2995 RMK A01 T02950132  RH  037%=      5-min Rain = 0
KCL1 122330Z 12008KT 30/13 A2995 RMK A01 T02950131  RH  037%=      5-min Rain = 0
KCL1 122331Z 11009KT 29/13 A2995 RMK A01 T02940130  RH  036%=      5-min Rain = 0
KCL1 122332Z 10009KT 30/13 A2995 RMK A01 T02950128  RH  036%=      5-min Rain = 0
KCL1 122333Z 10010KT 29/13 A2995 RMK A01 T02940129  RH  036%=      5-min Rain = 0
KCL1 122334Z 10010KT 29/13 A2995 RMK A01 T02930128  RH  036%=      5-min Rain = 0
KCL1 122335Z 10009KT 29/13 A2995 RMK A01 T02930128  RH  036%=      5-min Rain = 0
KCL1 122336Z 11009KT 29/13 A2995 RMK A01 T02920127  RH  036%=      5-min Rain = 0
KCL1 122337Z 11009KT 29/13 A2995 RMK A01 T02920128  RH  036%=      5-min Rain = 0
KCL1 122338Z 11010KT 29/13 A2995 RMK A01 T02910128  RH  036%=      5-min Rain = 0
KCL1 122339Z 11009KT 29/13 A2995 RMK A01 T02910126  RH  036%=      5-min Rain = 0
KCL1 122340Z 10007KT 29/13 A2995 RMK A01 T02910129  RH  037%=      5-min Rain = 0
KCL1 122341Z 10009KT 29/13 A2995 RMK A01 T02910131  RH  037%=      5-min Rain = 0
KCL1 122342Z 11009KT 29/13 A2995 RMK A01 T02900129  RH  037%=      5-min Rain = 0
KCL1 122343Z 11009KT 29/13 A2995 RMK A01 T02900129  RH  037%=      5-min Rain = 0
KCL1 122344Z 11010KT 29/13 A2995 RMK A01 T02890128  RH  037%=      5-min Rain = 0
KCL1 122345Z 10010KT 29/13 A2995 RMK A01 T02890127  RH  037%=      5-min Rain = 0
KCL1 122346Z 11009KT 29/13 A2995 RMK A01 T02880128  RH  037%=      5-min Rain = 0
KCL1 122347Z 10010KT 29/13 A2995 RMK A01 T02870128  RH  037%=      5-min Rain = 0
KCL1 122348Z 10009KT 29/13 A2995 RMK A01 T02870127  RH  037%=      5-min Rain = 0
KCL1 122349Z 10009KT 29/13 A2995 RMK A01 T02860128  RH  038%=      5-min Rain = 0
KCL1 122350Z 11009KT 29/13 A2995 RMK A01 T02860128  RH  038%=      5-min Rain = 0
KCL1 122351Z 11009KT 29/13 A2995 RMK A01 T02860129  RH  038%=      5-min Rain = 0
KCL1 122352Z 11009KT 29/13 A2995 RMK A01 T02850129  RH  038%=      5-min Rain = 0
KCL1 122353Z 11010KT 29/13 A2995 RMK A01 T02850129  RH  038%=      5-min Rain = 0
KCL1 122354Z 11009KT 29/13 A2995 RMK A01 T02850127  RH  038%=      5-min Rain = 0
KCL1 122355Z 10009KT 28/13 A2995 RMK A01 T02840127  RH  038%=      5-min Rain = 0
KCL1 122356Z 11009KT 28/13 A2995 RMK A01 T02840128  RH  038%=      5-min Rain = 0
KCL1 122357Z 11010KT 28/13 A2995 RMK A01 T02830127  RH  038%=      5-min Rain = 0
KCL1 122358Z 11010KT 28/13 A2995 RMK A01 T02830126  RH  038%=      5-min Rain = 0
KCL1 122359Z 10010KT 28/13 A2995 RMK A01 T02830125  RH  038%=      5-min Rain = 0
KCL1 130000Z 11010KT 28/13 A2995 RMK A01 T02830125  RH  038%=      5-min Rain = 0
KCL1 130001Z 11009KT 28/13 A2995 RMK A01 T02820126  RH  038%=      5-min Rain = 0
KCL1 130002Z 11008KT 28/13 A2995 RMK A01 T02820127  RH  038%=      5-min Rain = 0
KCL1 130003Z 11008KT 28/13 A2995 RMK A01 T02810128  RH  039%=      5-min Rain = 0
KCL1 130004Z 10008KT 28/13 A2995 RMK A01 T02810127  RH  039%=      5-min Rain = 0
KCL1 130005Z 11008KT 28/13 A2995 RMK A01 T02810128  RH  039%=      5-min Rain = 0
KCL1 130006Z 10008KT 28/13 A2995 RMK A01 T02800128  RH  039%=      5-min Rain = 0
KCL1 130007Z 11008KT 28/13 A2995 RMK A01 T02790128  RH  039%=      5-min Rain = 0
KCL1 130008Z 11008KT 28/13 A2995 RMK A01 T02790127  RH  039%=      5-min Rain = 0
KCL1 130009Z 10008KT 28/13 A2995 RMK A01 T02780128  RH  039%=      5-min Rain = 0
KCL1 130010Z 11008KT 28/13 A2995 RMK A01 T02780128  RH  040%=      5-min Rain = 0
KCL1 130011Z 11008KT 28/13 A2995 RMK A01 T02770128  RH  040%=      5-min Rain = 0
KCL1 130012Z 11008KT 28/13 A2995 RMK A01 T02760128  RH  040%=      5-min Rain = 0
KCL1 130013Z 11008KT 28/13 A2995 RMK A01 T02760127  RH  040%=      5-min Rain = 0
KCL1 130014Z 11009KT 28/13 A2995 RMK A01 T02750127  RH  040%=      5-min Rain = 0
KCL1 130015Z 11008KT 28/13 A2995 RMK A01 T02750128  RH  040%=      5-min Rain = 0
KCL1 130016Z 11008KT 27/13 A2995 RMK A01 T02740128  RH  041%=      5-min Rain = 0
KCL1 130017Z 11008KT 27/13 A2995 RMK A01 T02730128  RH  041%=      5-min Rain = 0
KCL1 130018Z 11008KT 27/13 A2995 RMK A01 T02720128  RH  041%=      5-min Rain = 0
KCL1 130019Z 11008KT 27/13 A2995 RMK A01 T02720129  RH  041%=      5-min Rain = 0
KCL1 130020Z 11007KT 27/13 A2995 RMK A01 T02710130  RH  042%=      5-min Rain = 0
KCL1 130021Z 12008KT 27/13 A2995 RMK A01 T02700130  RH  042%=      5-min Rain = 0
KCL1 130022Z 11007KT 27/13 A2995 RMK A01 T02690130  RH  042%=      5-min Rain = 0
KCL1 130023Z 11008KT 27/13 A2995 RMK A01 T02680130  RH  042%=      5-min Rain = 0
KCL1 130024Z 11008KT 27/13 A2995 RMK A01 T02670129  RH  042%=      5-min Rain = 0
KCL1 130025Z 11007KT 27/13 A2995 RMK A01 T02670129  RH  042%=      5-min Rain = 0
KCL1 130026Z 11007KT 27/13 A2995 RMK A01 T02660129  RH  043%=      5-min Rain = 0
KCL1 130027Z 11007KT 27/13 A2995 RMK A01 T02650128  RH  043%=      5-min Rain = 0
KCL1 130028Z 11008KT 27/13 A2995 RMK A01 T02650128  RH  043%=      5-min Rain = 0
KCL1 130029Z 11007KT 27/13 A2995 RMK A01 T02650128  RH  043%=      5-min Rain = 0
KCL1 130030Z 11007KT 26/13 A2995 RMK A01 T02640129  RH  043%=      5-min Rain = 0
KCL1 130031Z 11007KT 26/13 A2995 RMK A01 T02620129  RH  044%=      5-min Rain = 0
KCL1 130032Z 11007KT 26/13 A2995 RMK A01 T02610129  RH  044%=      5-min Rain = 0
KCL1 130033Z 11007KT 26/13 A2995 RMK A01 T02600129  RH  044%=      5-min Rain = 0
KCL1 130034Z 11007KT 26/13 A2995 RMK A01 T02590129  RH  044%=      5-min Rain = 0
KCL1 130035Z 11007KT 26/13 A2995 RMK A01 T02580129  RH  045%=      5-min Rain = 0
KCL1 130036Z 11008KT 26/13 A2995 RMK A01 T02560128  RH  045%=      5-min Rain = 0
KCL1 130037Z 11007KT 26/13 A2995 RMK A01 T02550129  RH  045%=      5-min Rain = 0
KCL1 130038Z 12007KT 25/13 A2995 RMK A01 T02540129  RH  046%=      5-min Rain = 0
KCL1 130039Z 11007KT 25/13 A2995 RMK A01 T02530128  RH  046%=      5-min Rain = 0
KCL1 130040Z 11007KT 25/13 A2995 RMK A01 T02510128  RH  046%=      5-min Rain = 0
KCL1 130041Z 11007KT 25/13 A2995 RMK A01 T02500128  RH  046%=      5-min Rain = 0
KCL1 130042Z 11007KT 25/13 A2995 RMK A01 T02490127  RH  046%=      5-min Rain = 0
KCL1 130043Z 11007KT 25/13 A2995 RMK A01 T02490127  RH  047%=      5-min Rain = 0
KCL1 130044Z 12007KT 25/13 A2995 RMK A01 T02480127  RH  047%=      5-min Rain = 0
KCL1 130045Z 12007KT 25/13 A2995 RMK A01 T02480127  RH  047%=      5-min Rain = 0
KCL1 130046Z 12006KT 25/13 A2995 RMK A01 T02470127  RH  047%=      5-min Rain = 0
KCL1 130047Z 12006KT 25/13 A2995 RMK A01 T02450127  RH  048%=      5-min Rain = 0
KCL1 130048Z 12007KT 24/13 A2995 RMK A01 T02440126  RH  048%=      5-min Rain = 0
KCL1 130049Z 12006KT 24/13 A2995 RMK A01 T02430127  RH  048%=      5-min Rain = 0
KCL1 130050Z 12006KT 24/13 A2995 RMK A01 T02410126  RH  049%=      5-min Rain = 0
KCL1 130051Z 12006KT 24/13 A2995 RMK A01 T02410127  RH  049%=      5-min Rain = 0
KCL1 130052Z 12007KT 24/13 A2995 RMK A01 T02390126  RH  049%=      5-min Rain = 0
KCL1 130053Z 12007KT 24/13 A2995 RMK A01 T02380126  RH  049%=      5-min Rain = 0
KCL1 130054Z 12007KT 24/13 A2995 RMK A01 T02370126  RH  050%=      5-min Rain = 0
KCL1 130055Z 13007KT 24/13 A2995 RMK A01 T02360126  RH  050%=      5-min Rain = 0
KCL1 130056Z 13006KT 24/13 A2995 RMK A01 T02350126  RH  050%=      5-min Rain = 0
KCL1 130057Z 12006KT 23/13 A2995 RMK A01 T02340126  RH  050%=      5-min Rain = 0
KCL1 130058Z 12006KT 23/13 A2995 RMK A01 T02330126  RH  051%=      5-min Rain = 0
KCL1 130059Z 12006KT 23/13 A2995 RMK A01 T02330126  RH  051%=      5-min Rain = 0
KCL1 130100Z 12006KT 23/13 A2995 RMK A01 T02320126  RH  051%=      5-min Rain = 0
KCL1 130101Z 12006KT 23/13 A2995 RMK A01 T02310126  RH  052%=      5-min Rain = 0
KCL1 130102Z 12006KT 23/13 A2995 RMK A01 T02300125  RH  052%=      5-min Rain = 0
KCL1 130103Z 12006KT 23/13 A2995 RMK A01 T02290125  RH  052%=      5-min Rain = 0
KCL1 130104Z 12007KT 23/13 A2995 RMK A01 T02290125  RH  052%=      5-min Rain = 0
KCL1 130105Z 12006KT 23/13 A2995 RMK A01 T02280125  RH  052%=      5-min Rain = 0
KCL1 130106Z 12006KT 23/12 A2995 RMK A01 T02280124  RH  052%=      5-min Rain = 0
KCL1 130107Z 13006KT 23/12 A2995 RMK A01 T02270124  RH  052%=      5-min Rain = 0
KCL1 130108Z 13007KT 23/12 A2995 RMK A01 T02260124  RH  052%=      5-min Rain = 0
KCL1 130109Z 13007KT 23/12 A2995 RMK A01 T02250124  RH  053%=      5-min Rain = 0
KCL1 130110Z 13007KT 22/12 A2995 RMK A01 T02240123  RH  053%=      5-min Rain = 0
KCL1 130111Z 13007KT 22/12 A2995 RMK A01 T02240123  RH  053%=      5-min Rain = 0
KCL1 130112Z 12008KT 22/12 A2996 RMK A01 T02240123  RH  053%=      5-min Rain = 0
KCL1 130113Z 12008KT 22/12 A2996 RMK A01 T02240123  RH  053%=      5-min Rain = 0
KCL1 130114Z 12008KT 22/12 A2995 RMK A01 T02240122  RH  053%=      5-min Rain = 0
KCL1 130115Z 12007KT 23/12 A2995 RMK A01 T02250123  RH  052%=      5-min Rain = 0
KCL1 130116Z 12008KT 23/12 A2995 RMK A01 T02250122  RH  052%=      5-min Rain = 0
KCL1 130117Z 12008KT 23/12 A2995 RMK A01 T02250123  RH  052%=      5-min Rain = 0
KCL1 130118Z 13007KT 23/12 A2995 RMK A01 T02250123  RH  052%=      5-min Rain = 0
KCL1 130119Z 13008KT 22/12 A2995 RMK A01 T02230122  RH  053%=      5-min Rain = 0
KCL1 130120Z 13007KT 22/12 A2995 RMK A01 T02220122  RH  053%=      5-min Rain = 0
KCL1 130121Z 13007KT 22/12 A2995 RMK A01 T02210122  RH  053%=      5-min Rain = 0
KCL1 130122Z 13007KT 22/12 A2995 RMK A01 T02210122  RH  053%=      5-min Rain = 0
KCL1 130123Z 13007KT 22/12 A2995 RMK A01 T02200122  RH  053%=      5-min Rain = 0
KCL1 130124Z 13007KT 22/12 A2995 RMK A01 T02210122  RH  054%=      5-min Rain = 0
KCL1 130125Z 13007KT 22/12 A2995 RMK A01 T02200122  RH  053%=      5-min Rain = 0
KCL1 130126Z 13006KT 22/12 A2996 RMK A01 T02210122  RH  053%=      5-min Rain = 0
KCL1 130127Z 13006KT 22/12 A2996 RMK A01 T02200121  RH  053%=      5-min Rain = 0
KCL1 130128Z 13007KT 22/12 A2996 RMK A01 T02200121  RH  054%=      5-min Rain = 0
KCL1 130129Z 13007KT 22/12 A2996 RMK A01 T02190121  RH  054%=      5-min Rain = 0
KCL1 130130Z 13007KT 22/12 A2996 RMK A01 T02180121  RH  054%=      5-min Rain = 0
KCL1 130131Z 13007KT 22/12 A2996 RMK A01 T02180121  RH  054%=      5-min Rain = 0
KCL1 130132Z 13007KT 22/12 A2996 RMK A01 T02180121  RH  054%=      5-min Rain = 0
KCL1 130133Z 13008KT 22/12 A2996 RMK A01 T02180121  RH  054%=      5-min Rain = 0
KCL1 130134Z 13007KT 22/12 A2996 RMK A01 T02180121  RH  054%=      5-min Rain = 0
KCL1 130135Z 13007KT 22/12 A2996 RMK A01 T02170121  RH  054%=      5-min Rain = 0
KCL1 130136Z 13008KT 22/12 A2996 RMK A01 T02160120  RH  054%=      5-min Rain = 0
KCL1 130137Z 13007KT 22/12 A2996 RMK A01 T02160121  RH  054%=      5-min Rain = 0
KCL1 130138Z 13006KT 22/12 A2996 RMK A01 T02160120  RH  055%=      5-min Rain = 0
KCL1 130139Z 13008KT 21/12 A2996 RMK A01 T02140120  RH  055%=      5-min Rain = 0
KCL1 130140Z 12008KT 21/12 A2996 RMK A01 T02130120  RH  055%=      5-min Rain = 0
KCL1 130141Z 12008KT 21/12 A2996 RMK A01 T02130119  RH  055%=      5-min Rain = 0
KCL1 130142Z 12008KT 21/12 A2996 RMK A01 T02130119  RH  055%=      5-min Rain = 0
KCL1 130143Z 12008KT 21/12 A2996 RMK A01 T02130119  RH  055%=      5-min Rain = 0
KCL1 130144Z 12008KT 21/12 A2996 RMK A01 T02140119  RH  055%=      5-min Rain = 0
KCL1 130145Z 12008KT 21/12 A2996 RMK A01 T02140119  RH  055%=      5-min Rain = 0
KCL1 130146Z 12007KT 22/12 A2996 RMK A01 T02150119  RH  054%=      5-min Rain = 0
KCL1 130147Z 13007KT 21/12 A2996 RMK A01 T02140119  RH  054%=      5-min Rain = 0
KCL1 130148Z 13006KT 21/12 A2996 RMK A01 T02140119  RH  055%=      5-min Rain = 0
KCL1 130149Z 13007KT 21/12 A2996 RMK A01 T02130119  RH  055%=      5-min Rain = 0
KCL1 130150Z 13007KT 21/12 A2996 RMK A01 T02120119  RH  055%=      5-min Rain = 0
KCL1 130151Z 13007KT 21/12 A2996 RMK A01 T02120118  RH  055%=      5-min Rain = 0
KCL1 130152Z 13007KT 21/12 A2996 RMK A01 T02110118  RH  055%=      5-min Rain = 0
KCL1 130153Z 13006KT 21/12 A2996 RMK A01 T02110118  RH  055%=      5-min Rain = 0
KCL1 130154Z 13007KT 21/12 A2996 RMK A01 T02110118  RH  055%=      5-min Rain = 0
KCL1 130155Z 12007KT 21/12 A2996 RMK A01 T02110118  RH  055%=      5-min Rain = 0
KCL1 130156Z 13007KT 21/12 A2996 RMK A01 T02110118  RH  055%=      5-min Rain = 0
KCL1 130157Z 13007KT 21/12 A2996 RMK A01 T02110118  RH  055%=      5-min Rain = 0
KCL1 130158Z 12007KT 21/12 A2996 RMK A01 T02110118  RH  055%=      5-min Rain = 0
KCL1 130159Z 12007KT 21/12 A2996 RMK A01 T02100117  RH  055%=      5-min Rain = 0
KCL1 130200Z 12006KT 21/12 A2996 RMK A01 T02100117  RH  055%=      5-min Rain = 0
KCL1 130201Z 12006KT 21/12 A2996 RMK A01 T02100117  RH  055%=      5-min Rain = 0
KCL1 130202Z 12006KT 21/12 A2996 RMK A01 T02090117  RH  056%=      5-min Rain = 0
KCL1 130203Z 12007KT 21/12 A2996 RMK A01 T02090117  RH  056%=      5-min Rain = 0
KCL1 130204Z 12007KT 21/12 A2997 RMK A01 T02080117  RH  056%=      5-min Rain = 0
KCL1 130205Z 12007KT 21/12 A2997 RMK A01 T02080116  RH  056%=      5-min Rain = 0
KCL1 130206Z 12007KT 21/12 A2997 RMK A01 T02080116  RH  056%=      5-min Rain = 0
KCL1 130207Z 12007KT 21/12 A2997 RMK A01 T02080117  RH  056%=      5-min Rain = 0
KCL1 130208Z 12006KT 21/12 A2997 RMK A01 T02080117  RH  056%=      5-min Rain = 0
KCL1 130209Z 12007KT 21/12 A2997 RMK A01 T02080116  RH  056%=      5-min Rain = 0
KCL1 130210Z 12007KT 21/12 A2997 RMK A01 T02080116  RH  056%=      5-min Rain = 0
KCL1 130211Z 12007KT 21/12 A2997 RMK A01 T02070116  RH  056%=      5-min Rain = 0
KCL1 130212Z 12007KT 21/12 A2997 RMK A01 T02080116  RH  056%=      5-min Rain = 0
KCL1 130213Z 12007KT 21/12 A2997 RMK A01 T02080116  RH  056%=      5-min Rain = 0
KCL1 130214Z 12007KT 21/12 A2997 RMK A01 T02070115  RH  056%=      5-min Rain = 0
KCL1 130215Z 12007KT 21/12 A2997 RMK A01 T02070115  RH  056%=      5-min Rain = 0
KCL1 130216Z 12007KT 21/12 A2997 RMK A01 T02060115  RH  056%=      5-min Rain = 0
KCL1 130217Z 12006KT 21/12 A2997 RMK A01 T02050116  RH  056%=      5-min Rain = 0
KCL1 130218Z 12006KT 20/12 A2997 RMK A01 T02040115  RH  057%=      5-min Rain = 0
KCL1 130219Z 13005KT 20/12 A2997 RMK A01 T02030115  RH  057%=      5-min Rain = 0
KCL1 130220Z 13006KT 20/12 A2997 RMK A01 T02020115  RH  057%=      5-min Rain = 0
KCL1 130221Z 14005KT 20/11 A2997 RMK A01 T02020114  RH  057%=      5-min Rain = 0
KCL1 130222Z 14004KT 20/12 A2997 RMK A01 T02020115  RH  057%=      5-min Rain = 0
KCL1 130223Z 14005KT 20/12 A2997 RMK A01 T02020115  RH  057%=      5-min Rain = 0
KCL1 130224Z 14005KT 20/12 A2997 RMK A01 T02020115  RH  057%=      5-min Rain = 0
KCL1 130225Z 13005KT 20/12 A2997 RMK A01 T02020115  RH  057%=      5-min Rain = 0
KCL1 130226Z 13005KT 20/11 A2997 RMK A01 T02020114  RH  057%=      5-min Rain = 0
KCL1 130227Z 13005KT 20/11 A2997 RMK A01 T02020114  RH  057%=      5-min Rain = 0
KCL1 130228Z 13005KT 20/11 A2997 RMK A01 T02030114  RH  057%=      5-min Rain = 0
KCL1 130229Z 13005KT 20/11 A2997 RMK A01 T02040114  RH  056%=      5-min Rain = 0
KCL1 130230Z 13005KT 20/11 A2997 RMK A01 T02040114  RH  056%=      5-min Rain = 0
KCL1 130231Z 13005KT 20/11 A2997 RMK A01 T02040114  RH  056%=      5-min Rain = 0
KCL1 130232Z 13005KT 21/11 A2997 RMK A01 T02050114  RH  056%=      5-min Rain = 0
KCL1 130233Z 13005KT 21/11 A2997 RMK A01 T02050114  RH  056%=      5-min Rain = 0
KCL1 130234Z 13005KT 21/11 A2997 RMK A01 T02050114  RH  056%=      5-min Rain = 0
KCL1 130235Z 13006KT 21/11 A2997 RMK A01 T02050114  RH  056%=      5-min Rain = 0
KCL1 130236Z 14006KT 21/11 A2997 RMK A01 T02050114  RH  056%=      5-min Rain = 0
KCL1 130237Z 14006KT 21/11 A2997 RMK A01 T02050114  RH  056%=      5-min Rain = 0
KCL1 130238Z 14007KT 21/11 A2997 RMK A01 T02050113  RH  056%=      5-min Rain = 0
KCL1 130239Z 14007KT 20/11 A2997 RMK A01 T02040113  RH  056%=      5-min Rain = 0
KCL1 130240Z 13008KT 21/11 A2997 RMK A01 T02050113  RH  055%=      5-min Rain = 0
KCL1 130241Z 13008KT 21/11 A2997 RMK A01 T02050112  RH  055%=      5-min Rain = 0
KCL1 130242Z 13008KT 21/11 A2997 RMK A01 T02050112  RH  055%=      5-min Rain = 0
KCL1 130243Z 13008KT 21/11 A2997 RMK A01 T02050112  RH  055%=      5-min Rain = 0
KCL1 130244Z 13008KT 21/11 A2997 RMK A01 T02060112  RH  055%=      5-min Rain = 0
KCL1 130245Z 13009KT 21/11 A2997 RMK A01 T02060112  RH  055%=      5-min Rain = 0
KCL1 130246Z 12008KT 21/11 A2997 RMK A01 T02070112  RH  054%=      5-min Rain = 0
KCL1 130247Z 13008KT 21/11 A2997 RMK A01 T02080112  RH  054%=      5-min Rain = 0
KCL1 130248Z 13008KT 21/11 A2997 RMK A01 T02080112  RH  054%=      5-min Rain = 0
KCL1 130249Z 13008KT 21/11 A2997 RMK A01 T02090112  RH  054%=      5-min Rain = 0
KCL1 130250Z 13008KT 21/11 A2997 RMK A01 T02090112  RH  054%=      5-min Rain = 0
KCL1 130251Z 13008KT 21/11 A2997 RMK A01 T02080112  RH  054%=      5-min Rain = 0
KCL1 130252Z 13008KT 21/11 A2997 RMK A01 T02070112  RH  054%=      5-min Rain = 0
KCL1 130253Z 13008KT 21/11 A2997 RMK A01 T02070112  RH  054%=      5-min Rain = 0
KCL1 130254Z 12009KT 21/11 A2997 RMK A01 T02070112  RH  054%=      5-min Rain = 0
KCL1 130255Z 12008KT 21/11 A2997 RMK A01 T02070112  RH  054%=      5-min Rain = 0
KCL1 130256Z 12008KT 21/11 A2997 RMK A01 T02070112  RH  054%=      5-min Rain = 0
KCL1 130257Z 12008KT 21/11 A2997 RMK A01 T02060111  RH  054%=      5-min Rain = 0
KCL1 130258Z 12008KT 21/11 A2997 RMK A01 T02060111  RH  054%=      5-min Rain = 0
KCL1 130259Z 12007KT 21/11 A2997 RMK A01 T02050111  RH  055%=      5-min Rain = 0
KCL1 130300Z 12008KT 20/11 A2997 RMK A01 T02040111  RH  055%=      5-min Rain = 0
KCL1 130301Z 12008KT 20/11 A2997 RMK A01 T02030111  RH  055%=      5-min Rain = 0
KCL1 130302Z 12008KT 20/11 A2997 RMK A01 T02030111  RH  055%=      5-min Rain = 0
KCL1 130303Z 12008KT 20/11 A2997 RMK A01 T02020110  RH  056%=      5-min Rain = 0
KCL1 130304Z 13007KT 20/11 A2997 RMK A01 T02010110  RH  056%=      5-min Rain = 0
KCL1 130305Z 12007KT 20/11 A2997 RMK A01 T02000110  RH  056%=      5-min Rain = 0
KCL1 130306Z 13008KT 20/11 A2997 RMK A01 T02000110  RH  056%=      5-min Rain = 0
KCL1 130307Z 13007KT 20/11 A2997 RMK A01 T01990110  RH  056%=      5-min Rain = 0
KCL1 130308Z 13007KT 20/11 A2997 RMK A01 T01990109  RH  056%=      5-min Rain = 0
KCL1 130309Z 13008KT 20/11 A2997 RMK A01 T01990109  RH  056%=      5-min Rain = 0
KCL1 130310Z 12007KT 20/11 A2997 RMK A01 T01990109  RH  056%=      5-min Rain = 0
KCL1 130311Z 12007KT 20/11 A2997 RMK A01 T01990109  RH  056%=      5-min Rain = 0
KCL1 130312Z 13007KT 20/11 A2997 RMK A01 T01990109  RH  056%=      5-min Rain = 0
KCL1 130313Z 13008KT 20/11 A2997 RMK A01 T01990109  RH  056%=      5-min Rain = 0
KCL1 130314Z 13008KT 20/11 A2997 RMK A01 T01990109  RH  056%=      5-min Rain = 0
KCL1 130315Z 14007KT 20/11 A2998 RMK A01 T01980109  RH  056%=      5-min Rain = 0
KCL1 130316Z 14007KT 20/11 A2998 RMK A01 T01980109  RH  056%=      5-min Rain = 0
KCL1 130317Z 15007KT 20/11 A2998 RMK A01 T01980108  RH  056%=      5-min Rain = 0
KCL1 130318Z 15007KT 20/11 A2998 RMK A01 T01990108  RH  056%=      5-min Rain = 0
KCL1 130319Z 15007KT 20/11 A2998 RMK A01 T01990108  RH  055%=      5-min Rain = 0
KCL1 130320Z 15007KT 20/11 A2998 RMK A01 T02000108  RH  055%=      5-min Rain = 0
KCL1 130321Z 15006KT 20/11 A2998 RMK A01 T02010108  RH  055%=      5-min Rain = 0
KCL1 130322Z 15006KT 20/11 A2998 RMK A01 T02020108  RH  055%=      5-min Rain = 0
KCL1 130323Z 15006KT 20/11 A2998 RMK A01 T02030108  RH  054%=      5-min Rain = 0
KCL1 130324Z 15006KT 20/11 A2998 RMK A01 T02030107  RH  054%=      5-min Rain = 0
KCL1 130325Z 15007KT 21/11 A2998 RMK A01 T02050108  RH  054%=      5-min Rain = 0
KCL1 130326Z 15007KT 21/11 A2998 RMK A01 T02060107  RH  053%=      5-min Rain = 0
KCL1 130327Z 15007KT 21/11 A2998 RMK A01 T02070108  RH  053%=      5-min Rain = 0
KCL1 130328Z 14007KT 21/11 A2998 RMK A01 T02080107  RH  053%=      5-min Rain = 0
KCL1 130329Z 15007KT 21/11 A2998 RMK A01 T02080107  RH  052%=      5-min Rain = 0
KCL1 130330Z 15007KT 21/11 A2998 RMK A01 T02090107  RH  052%=      5-min Rain = 0
KCL1 130331Z 15007KT 21/11 A2998 RMK A01 T02090107  RH  052%=      5-min Rain = 0
KCL1 130332Z 15007KT 21/11 A2998 RMK A01 T02100108  RH  052%=      5-min Rain = 0
KCL1 130333Z 15007KT 21/11 A2998 RMK A01 T02100107  RH  052%=      5-min Rain = 0
KCL1 130334Z 15006KT 21/11 A2998 RMK A01 T02110108  RH  052%=      5-min Rain = 0
KCL1 130335Z 15007KT 21/11 A2998 RMK A01 T02100108  RH  052%=      5-min Rain = 0
KCL1 130336Z 15007KT 21/11 A2998 RMK A01 T02100107  RH  052%=      5-min Rain = 0
KCL1 130337Z 15007KT 21/11 A2998 RMK A01 T02100107  RH  052%=      5-min Rain = 0
KCL1 130338Z 15007KT 21/11 A2998 RMK A01 T02100107  RH  052%=      5-min Rain = 0
KCL1 130339Z 15007KT 21/11 A2998 RMK A01 T02100107  RH  052%=      5-min Rain = 0
KCL1 130340Z 15007KT 21/11 A2998 RMK A01 T02110107  RH  052%=      5-min Rain = 0
KCL1 130341Z 15006KT 21/11 A2998 RMK A01 T02110107  RH  051%=      5-min Rain = 0
KCL1 130342Z 15006KT 21/11 A2998 RMK A01 T02120107  RH  051%=      5-min Rain = 0
KCL1 130343Z 15006KT 21/11 A2998 RMK A01 T02130107  RH  051%=      5-min Rain = 0
KCL1 130344Z 15006KT 21/11 A2998 RMK A01 T02120107  RH  051%=      5-min Rain = 0
KCL1 130345Z 15006KT 21/11 A2998 RMK A01 T02130107  RH  051%=      5-min Rain = 0
KCL1 130346Z 15007KT 21/11 A2998 RMK A01 T02130107  RH  051%=      5-min Rain = 0
KCL1 130347Z 15006KT 21/11 A2998 RMK A01 T02120107  RH  051%=      5-min Rain = 0
KCL1 130348Z 15006KT 21/11 A2998 RMK A01 T02120107  RH  051%=      5-min Rain = 0
KCL1 130349Z 15007KT 21/11 A2998 RMK A01 T02120107  RH  051%=      5-min Rain = 0
KCL1 130350Z 15007KT 21/11 A2998 RMK A01 T02110107  RH  051%=      5-min Rain = 0
KCL1 130351Z 15007KT 21/11 A2998 RMK A01 T02110106  RH  051%=      5-min Rain = 0
KCL1 130352Z 15007KT 21/11 A2998 RMK A01 T02110106  RH  051%=      5-min Rain = 0
KCL1 130353Z 15006KT 21/11 A2998 RMK A01 T02110107  RH  051%=      5-min Rain = 0
KCL1 130354Z 15006KT 21/11 A2998 RMK A01 T02110106  RH  051%=      5-min Rain = 0
KCL1 130355Z 15006KT 21/11 A2998 RMK A01 T02100106  RH  051%=      5-min Rain = 0
KCL1 130356Z 15006KT 21/11 A2998 RMK A01 T02100106  RH  051%=      5-min Rain = 0
KCL1 130357Z 16006KT 21/11 A2998 RMK A01 T02110106  RH  051%=      5-min Rain = 0
KCL1 130358Z 16006KT 21/11 A2998 RMK A01 T02100106  RH  051%=      5-min Rain = 0
KCL1 130359Z 16006KT 21/11 A2998 RMK A01 T02110106  RH  051%=      5-min Rain = 0
KCL1 130400Z 16006KT 21/11 A2998 RMK A01 T02110106  RH  051%=      5-min Rain = 0
KCL1 130401Z 16005KT 21/11 A2998 RMK A01 T02110106  RH  051%=      5-min Rain = 0
KCL1 130402Z 16006KT 21/11 A2998 RMK A01 T02110106  RH  051%=      5-min Rain = 0
KCL1 130403Z 16006KT 21/11 A2998 RMK A01 T02110106  RH  051%=      5-min Rain = 0
KCL1 130404Z 15006KT 21/11 A2998 RMK A01 T02110106  RH  051%=      5-min Rain = 0
KCL1 130405Z 15005KT 21/11 A2998 RMK A01 T02110106  RH  051%=      5-min Rain = 0
KCL1 130406Z 15006KT 21/11 A2998 RMK A01 T02100106  RH  051%=      5-min Rain = 0
KCL1 130407Z 15006KT 21/11 A2998 RMK A01 T02100106  RH  051%=      5-min Rain = 0
KCL1 130408Z 14007KT 21/11 A2998 RMK A01 T02090106  RH  051%=      5-min Rain = 0
KCL1 130409Z 14008KT 21/11 A2998 RMK A01 T02090105  RH  051%=      5-min Rain = 0
KCL1 130410Z 14007KT 21/11 A2998 RMK A01 T02090105  RH  051%=      5-min Rain = 0
KCL1 130411Z 14007KT 21/11 A2998 RMK A01 T02100105  RH  051%=      5-min Rain = 0
KCL1 130412Z 14007KT 21/11 A2998 RMK A01 T02100105  RH  051%=      5-min Rain = 0
KCL1 130413Z 14006KT 21/11 A2998 RMK A01 T02090105  RH  051%=      5-min Rain = 0
KCL1 130414Z 14006KT 21/11 A2998 RMK A01 T02080105  RH  052%=      5-min Rain = 0
KCL1 130415Z 14006KT 21/11 A2998 RMK A01 T02070105  RH  052%=      5-min Rain = 0
KCL1 130416Z 14006KT 21/11 A2998 RMK A01 T02070105  RH  052%=      5-min Rain = 0
KCL1 130417Z 14006KT 21/11 A2998 RMK A01 T02060105  RH  052%=      5-min Rain = 0
KCL1 130418Z 14007KT 21/11 A2998 RMK A01 T02060105  RH  052%=      5-min Rain = 0
KCL1 130419Z 14007KT 21/11 A2998 RMK A01 T02050105  RH  052%=      5-min Rain = 0
KCL1 130420Z 14007KT 21/11 A2998 RMK A01 T02050105  RH  053%=      5-min Rain = 0
KCL1 130421Z 14007KT 20/11 A2998 RMK A01 T02040105  RH  053%=      5-min Rain = 0
KCL1 130422Z 14008KT 20/11 A2998 RMK A01 T02030105  RH  053%=      5-min Rain = 0
KCL1 130423Z 14008KT 20/11 A2998 RMK A01 T02020105  RH  053%=      5-min Rain = 0
KCL1 130424Z 14008KT 20/10 A2998 RMK A01 T02020104  RH  054%=      5-min Rain = 0
KCL1 130425Z 14008KT 20/10 A2998 RMK A01 T02010104  RH  054%=      5-min Rain = 0
KCL1 130426Z 14008KT 20/10 A2998 RMK A01 T02010104  RH  054%=      5-min Rain = 0
KCL1 130427Z 14007KT 20/10 A2998 RMK A01 T02010104  RH  054%=      5-min Rain = 0
KCL1 130428Z 14007KT 20/11 A2998 RMK A01 T02010105  RH  054%=      5-min Rain = 0
KCL1 130429Z 13007KT 20/10 A2998 RMK A01 T02000104  RH  054%=      5-min Rain = 0
KCL1 130430Z 13007KT 20/10 A2998 RMK A01 T02000104  RH  054%=      5-min Rain = 0
KCL1 130431Z 13007KT 20/10 A2998 RMK A01 T02000104  RH  054%=      5-min Rain = 0
KCL1 130432Z 13007KT 20/10 A2998 RMK A01 T01990104  RH  054%=      5-min Rain = 0
KCL1 130433Z 13007KT 20/10 A2998 RMK A01 T01980104  RH  055%=      5-min Rain = 0
KCL1 130434Z 13008KT 20/10 A2998 RMK A01 T01970104  RH  055%=      5-min Rain = 0
KCL1 130435Z 13008KT 20/10 A2998 RMK A01 T01970104  RH  055%=      5-min Rain = 0
KCL1 130436Z 13008KT 20/10 A2998 RMK A01 T01960104  RH  055%=      5-min Rain = 0
KCL1 130437Z 13007KT 20/10 A2998 RMK A01 T01950104  RH  055%=      5-min Rain = 0
KCL1 130438Z 13007KT 20/10 A2998 RMK A01 T01950104  RH  056%=      5-min Rain = 0
KCL1 130439Z 14007KT 19/10 A2998 RMK A01 T01940104  RH  056%=      5-min Rain = 0
KCL1 130440Z 14006KT 19/10 A2998 RMK A01 T01940104  RH  056%=      5-min Rain = 0
KCL1 130441Z 14005KT 19/10 A2998 RMK A01 T01940103  RH  056%=      5-min Rain = 0
KCL1 130442Z 14005KT 19/10 A2998 RMK A01 T01940104  RH  056%=      5-min Rain = 0
KCL1 130443Z 14005KT 19/10 A2998 RMK A01 T01940104  RH  056%=      5-min Rain = 0
KCL1 130444Z 15005KT 19/10 A2998 RMK A01 T01930103  RH  056%=      5-min Rain = 0
KCL1 130445Z 15005KT 19/10 A2998 RMK A01 T01930103  RH  056%=      5-min Rain = 0
KCL1 130446Z 16005KT 19/10 A2998 RMK A01 T01930103  RH  056%=      5-min Rain = 0
KCL1 130447Z 16006KT 19/10 A2999 RMK A01 T01930102  RH  056%=      5-min Rain = 0
KCL1 130448Z 16006KT 19/10 A2999 RMK A01 T01940102  RH  055%=      5-min Rain = 0
KCL1 130449Z 16006KT 20/10 A2998 RMK A01 T01950102  RH  055%=      5-min Rain = 0
KCL1 130450Z 16005KT 20/10 A2998 RMK A01 T01960102  RH  054%=      5-min Rain = 0
KCL1 130451Z 16006KT 20/10 A2998 RMK A01 T01980102  RH  054%=      5-min Rain = 0
KCL1 130452Z 16006KT 20/10 A2998 RMK A01 T01980102  RH  054%=      5-min Rain = 0
KCL1 130453Z 16006KT 20/10 A2998 RMK A01 T01990102  RH  053%=      5-min Rain = 0
KCL1 130454Z 16007KT 20/10 A2998 RMK A01 T02010101  RH  053%=      5-min Rain = 0
KCL1 130455Z 15006KT 20/10 A2998 RMK A01 T02040101  RH  052%=      5-min Rain = 0
KCL1 130456Z 15006KT 21/10 A2998 RMK A01 T02060101  RH  051%=      5-min Rain = 0
KCL1 130457Z 15006KT 21/10 A2998 RMK A01 T02070102  RH  051%=      5-min Rain = 0
KCL1 130458Z 15006KT 21/10 A2998 RMK A01 T02070102  RH  051%=      5-min Rain = 0
KCL1 130459Z 15007KT 21/10 A2998 RMK A01 T02070102  RH  051%=      5-min Rain = 0

Page generated in 0.1253 seconds.